IZ1UQG-N2 Weather Reports


time (UTC)temp
F
wind
direction
speed
knots
gust
knots
rain 1hr
in
rain 24hr
in
rain mn
in
humidity
%
barometer
mb
20260507235245 54 228 2.6 3.5 0.00 0.00 0.00 80 1013.2
20260507235145 54 227 2.6 5.2 0.00 0.00 0.00 80 1013.1
20260507235046 54 226 2.6 5.2 0.00 0.00 0.00 80 1013.1
20260507234946 54 225 3.5 6.1 0.00 0.00 0.00 80 1013.1
20260507234846 55 224 3.5 6.1 0.00 0.00 0.00 80 1013.2
20260507234745 55 223 3.5 6.1 0.00 0.00 0.00 79 1013.2
20260507234644 55 224 3.5 6.1 0.00 0.00 0.00 79 1013.3
20260507234544 55 224 3.5 6.1 0.00 0.00 0.00 79 1013.2
20260507234446 55 225 3.5 6.1 0.00 0.00 0.00 79 1013.2
20260507234346 55 226 3.5 6.1 0.00 0.00 0.00 79 1013.1
20260507234245 55 227 3.5 6.1 0.00 0.00 0.00 79 1013.2
20260507234146 55 227 2.6 6.1 0.00 0.00 0.00 79 1013.2
20260507234046 55 228 2.6 6.1 0.00 0.00 0.00 79 1013.2
20260507233946 55 230 1.7 6.1 0.00 0.00 0.00 78 1013.2
20260507233845 55 232 1.7 6.1 0.00 0.00 0.00 78 1013.3
20260507233745 55 236 0.9 5.2 0.00 0.00 0.00 78 1013.3
20260507233645 55 241 0.9 3.5 0.00 0.00 0.00 78 1013.2
20260507233545 55 249 0.9 2.6 0.00 0.00 0.00 78 1013.1
20260507233445 56 253 0.0 2.6 0.00 0.00 0.00 78 1013.2
20260507233344 56 246 0.9 5.2 0.00 0.00 0.00 78 1013.1
20260507233246 56 239 0.9 5.2 0.00 0.00 0.00 78 1013.1
20260507233145 56 236 0.9 6.1 0.00 0.00 0.00 78 1013.1
20260507233045 56 233 0.9 6.1 0.00 0.00 0.00 77 1013.2
20260507232945 56 235 1.7 6.1 0.00 0.00 0.00 78 1013.1
20260507232845 56 237 1.7 6.1 0.00 0.00 0.00 77 1013.1
20260507232745 56 237 1.7 6.1 0.00 0.00 0.00 77 1013.2
20260507232646 56 237 1.7 6.1 0.00 0.00 0.00 78 1013.2
20260507232546 56 233 2.6 6.1 0.00 0.00 0.00 78 1013.1
20260507232446 56 230 2.6 6.1 0.00 0.00 0.00 78 1013.2
20260507232345 56 228 3.5 7.0 0.00 0.00 0.00 79 1013.2
20260507232245 56 227 3.5 7.0 0.00 0.00 0.00 79 1013.2
20260507232144 55 226 3.5 7.0 0.00 0.00 0.00 79 1013.2
20260507232046 55 225 3.5 7.0 0.00 0.00 0.00 80 1013.3
20260507231946 55 223 4.3 7.0 0.00 0.00 0.00 80 1013.3
20260507231845 55 221 4.3 7.0 0.00 0.00 0.00 80 1013.3
20260507231745 55 221 4.3 7.0 0.00 0.00 0.00 80 1013.1
20260507231644 55 221 4.3 7.0 0.00 0.00 0.00 80 1013.2
20260507231544 55 221 5.2 7.0 0.00 0.00 0.00 80 1013.4
20260507231446 55 221 5.2 7.0 0.00 0.00 0.00 80 1013.3
20260507231346 55 222 4.3 7.0 0.00 0.00 0.00 80 1013.4
20260507231245 55 223 4.3 7.0 0.00 0.00 0.00 79 1013.3
20260507231145 55 223 4.3 7.0 0.00 0.00 0.00 79 1013.3
20260507231045 55 223 4.3 7.0 0.00 0.00 0.00 79 1013.3
20260507230945 55 224 4.3 7.0 0.00 0.00 0.00 79 1013.3
20260507230844 55 224 4.3 7.0 0.00 0.00 0.00 79 1013.3
20260507230744 55 224 4.3 7.0 0.00 0.00 0.00 79 1013.3
20260507230646 55 224 3.5 7.0 0.00 0.00 0.00 79 1013.3
20260507230546 55 224 3.5 6.1 0.00 0.00 0.00 79 1013.3
20260507230446 55 225 3.5 6.1 0.00 0.00 0.00 79 1013.2
20260507230346 55 224 3.5 6.1 0.00 0.00 0.00 79 1013.2
20260507230245 55 224 2.6 6.1 0.00 0.00 0.00 79 1013.2
20260507230145 56 224 2.6 6.1 0.00 0.00 0.00 79 1013.3
20260507230045 56 225 2.6 5.2 0.00 0.00 0.00 79 1013.1
20260507225946 56 225 2.6 3.5 0.00 0.00 0.00 78 1013.1
20260507225846 56 225 2.6 3.5 0.00 0.00 0.00 78 1013.2
20260507225746 56 225 2.6 3.5 0.00 0.00 0.00 78 1013.2
20260507225645 56 226 2.6 3.5 0.00 0.00 0.00 78 1013.3
20260507225545 56 225 2.6 3.5 0.00 0.00 0.00 78 1013.2
20260507225445 56 225 2.6 2.6 0.00 0.00 0.00 78 1013.1
20260507225344 56 225 2.6 2.6 0.00 0.00 0.00 78 1013.1
20260507225246 56 225 1.7 2.6 0.00 0.00 0.00 78 1013.1
20260507225145 56 226 1.7 3.5 0.00 0.00 0.00 78 1013.1
20260507225045 56 225 2.6 3.5 0.00 0.00 0.00 78 1013.1
20260507224945 56 224 2.6 5.2 0.00 0.00 0.00 78 1013.1
20260507224845 56 223 2.6 6.1 0.00 0.00 0.00 78 1013.0
20260507224744 56 221 2.6 6.1 0.00 0.00 0.00 78 1013.0
20260507224645 56 220 2.6 6.1 0.00 0.00 0.00 78 1013.0
20260507224545 56 221 2.6 6.1 0.00 0.00 0.00 78 1013.1
20260507224445 56 221 3.5 6.1 0.00 0.00 0.00 78 1013.1
20260507224344 56 220 3.5 6.1 0.00 0.00 0.00 78 1013.1
20260507224244 56 220 3.5 6.1 0.00 0.00 0.00 78 1013.0
20260507224146 56 220 4.3 6.1 0.00 0.00 0.00 78 1013.1
20260507224045 56 220 4.3 6.1 0.00 0.00 0.00 78 1013.0
20260507223945 56 221 4.3 6.1 0.00 0.00 0.00 78 1013.1
20260507223846 56 221 4.3 6.1 0.00 0.00 0.00 78 1013.1
20260507223746 56 223 4.3 6.1 0.00 0.00 0.00 78 1013.1
20260507223645 56 225 3.5 6.1 0.00 0.00 0.00 77 1013.1
20260507223545 56 225 3.5 6.1 0.00 0.00 0.00 77 1013.0
20260507223445 56 227 3.5 6.1 0.00 0.00 0.00 77 1013.0
20260507223345 56 229 2.6 6.1 0.00 0.00 0.00 77 1013.0
20260507223246 56 232 2.6 6.1 0.00 0.00 0.00 77 1013.1
20260507223146 56 236 2.6 6.1 0.00 0.00 0.00 77 1013.0
20260507223045 56 239 2.6 6.1 0.00 0.00 0.00 77 1013.0
20260507222945 56 243 1.7 6.1 0.00 0.00 0.00 77 1013.0
20260507222845 56 247 1.7 5.2 0.00 0.00 0.00 77 1013.1
20260507222745 56 248 0.9 5.2 0.00 0.00 0.00 77 1013.0
20260507222646 57 248 0.9 2.6 0.00 0.00 0.00 77 1013.0
20260507222546 57 247 0.9 2.6 0.00 0.00 0.00 77 1012.9
20260507222446 57 243 0.9 2.6 0.00 0.00 0.00 77 1012.8
20260507222345 57 237 1.7 2.6 0.00 0.00 0.00 77 1012.8
20260507222245 57 231 1.7 2.6 0.00 0.00 0.00 76 1013.0
20260507222144 57 226 1.7 5.2 0.00 0.00 0.00 76 1013.0
20260507222046 57 221 1.7 5.2 0.00 0.00 0.00 76 1013.0
20260507221946 57 218 1.7 5.2 0.00 0.00 0.00 76 1012.8
20260507221846 57 218 2.6 6.1 0.00 0.00 0.00 76 1012.8
20260507221745 57 216 2.6 6.1 0.00 0.00 0.00 77 1012.8
20260507221644 57 216 3.5 6.1 0.00 0.00 0.00 77 1012.8
20260507221544 57 215 3.5 6.1 0.00 0.00 0.00 77 1012.9
20260507221446 57 214 3.5 7.0 0.00 0.00 0.00 77 1012.9
20260507221346 57 213 4.3 7.0 0.00 0.00 0.00 77 1012.8
20260507221246 57 213 4.3 7.0 0.00 0.00 0.00 77 1012.8
20260507221145 57 212 4.3 7.0 0.00 0.00 0.00 77 1012.8
20260507221045 57 211 4.3 7.0 0.00 0.00 0.00 77 1012.8
20260507220945 57 211 4.3 7.0 0.00 0.00 0.00 76 1012.8
20260507220844 57 211 4.3 7.0 0.00 0.00 0.00 76 1012.8
20260507220744 57 212 4.3 7.0 0.00 0.00 0.00 76 1012.8
20260507220645 57 213 3.5 7.0 0.00 0.00 0.00 76 1012.8
20260507220545 57 215 3.5 7.0 0.00 0.00 0.00 76 1012.8
20260507220445 57 218 3.5 7.0 0.00 0.00 0.00 76 1012.9
20260507220345 57 221 2.6 7.0 0.00 0.00 0.00 76 1012.9
20260507220245 57 228 1.7 6.1 0.00 0.00 0.00 76 1012.9
20260507220144 58 239 1.7 6.1 0.00 0.00 0.00 76 1012.8
20260507220045 58 253 1.7 3.5 0.00 0.00 0.00 76 1012.8
20260507215945 58 272 1.7 2.6 0.00 0.00 0.00 76 1012.8
20260507215845 58 288 1.7 3.5 0.00 0.00 0.00 76 1012.9
20260507215745 58 298 1.7 3.5 0.00 0.00 0.00 76 1012.8
20260507215646 58 305 1.7 3.5 0.00 0.00 0.00 76 1012.9
20260507215546 58 308 0.9 3.5 0.00 0.00 0.00 76 1012.9
20260507215446 58 312 0.9 3.5 0.00 0.00 0.00 76 1012.9
20260507215345 58 314 0.9 3.5 0.00 0.00 0.00 75 1012.8
20260507215244 58 315 0.9 3.5 0.00 0.00 0.00 75 1012.8
20260507215146 58 315 0.9 3.5 0.00 0.00 0.00 75 1012.9
20260507215045 58 313 0.9 3.5 0.00 0.00 0.00 75 1012.7
20260507214945 58 307 0.0 3.5 0.00 0.00 0.00 75 1012.7
20260507214845 58 297 0.0 3.5 0.00 0.00 0.00 75 1012.7
20260507214745 58 277 0.0 0.9 0.00 0.00 0.00 75 1012.7
20260507214645 58 273 0.0 0.9 0.00 0.00 0.00 75 1012.7
20260507214545 58 275 0.0 0.9 0.00 0.00 0.00 75 1012.6
20260507214445 58 278 0.0 0.9 0.00 0.00 0.00 75 1012.8
20260507214344 58 276 0.0 0.9 0.00 0.00 0.00 75 1012.7
20260507214245 58 276 0.0 0.9 0.00 0.00 0.00 75 1012.6
20260507214145 58 270 0.0 2.6 0.00 0.00 0.00 74 1012.6
20260507214045 58 263 0.9 5.2 0.00 0.00 0.00 74 1012.6
20260507213946 59 253 0.9 5.2 0.00 0.00 0.00 75 1012.6
20260507213846 58 246 1.7 5.2 0.00 0.00 0.00 75 1012.6
20260507213746 59 239 1.7 6.1 0.00 0.00 0.00 74 1012.6
20260507213646 58 235 1.7 6.1 0.00 0.00 0.00 74 1012.6
20260507213545 58 231 2.6 6.1 0.00 0.00 0.00 74 1012.7
20260507213445 58 228 2.6 6.1 0.00 0.00 0.00 74 1012.7
20260507213344 58 226 3.5 6.1 0.00 0.00 0.00 75 1012.7
20260507213246 58 224 3.5 6.1 0.00 0.00 0.00 74 1012.7
20260507213145 58 222 3.5 6.1 0.00 0.00 0.00 74 1012.7
20260507213045 58 221 3.5 6.1 0.00 0.00 0.00 74 1012.7
20260507212945 58 220 2.6 6.1 0.00 0.00 0.00 74 1012.7
20260507212844 58 220 2.6 6.1 0.00 0.00 0.00 74 1012.7
20260507212744 58 221 2.6 6.1 0.00 0.00 0.00 75 1012.7
20260507212645 58 223 2.6 6.1 0.00 0.00 0.00 74 1012.8
20260507212545 58 225 1.7 6.1 0.00 0.00 0.00 74 1012.6
20260507212445 58 230 1.7 6.1 0.00 0.00 0.00 74 1012.7
20260507212345 59 235 0.9 3.5 0.00 0.00 0.00 74 1012.7
20260507212246 59 240 0.9 3.5 0.00 0.00 0.00 74 1012.6
20260507212146 59 246 0.9 2.6 0.00 0.00 0.00 74 1012.6
20260507212045 59 250 0.9 2.6 0.00 0.00 0.00 74 1012.6
20260507211945 59 252 0.9 2.6 0.00 0.00 0.00 74 1012.6
20260507211845 59 256 0.9 2.6 0.00 0.00 0.00 74 1012.5
20260507211744 59 262 0.9 2.6 0.00 0.00 0.00 74 1012.5
20260507211646 59 269 0.0 1.7 0.00 0.00 0.00 74 1012.6
20260507211546 59 274 0.0 1.7 0.00 0.00 0.00 74 1012.6
20260507211446 59 278 0.0 0.9 0.00 0.00 0.00 74 1012.5
20260507211344 59 276 0.0 0.9 0.00 0.00 0.00 74 1012.5
20260507211244 59 274 0.0 1.7 0.00 0.00 0.00 74 1012.5
20260507211146 59 275 0.0 1.7 0.00 0.00 0.00 75 1012.5
20260507211045 59 275 0.9 1.7 0.00 0.00 0.00 75 1012.5
20260507210945 59 278 0.9 1.7 0.00 0.00 0.00 75 1012.5
20260507210845 58 284 0.9 1.7 0.00 0.00 0.00 75 1012.6
20260507210745 58 294 0.9 1.7 0.00 0.00 0.00 75 1012.6
20260507210644 58 301 0.9 1.7 0.00 0.00 0.00 75 1012.6
20260507210546 58 311 0.9 1.7 0.00 0.00 0.00 75 1012.7
20260507210446 58 319 0.9 2.6 0.00 0.00 0.00 75 1012.7
20260507210346 58 328 0.9 2.6 0.00 0.00 0.00 75 1012.6
20260507210245 58 336 0.9 2.6 0.00 0.00 0.00 76 1012.6
20260507210145 58 341 1.7 2.6 0.00 0.00 0.00 76 1012.6
20260507210045 58 348 1.7 3.5 0.00 0.00 0.00 76 1012.6
20260507205944 58 352 1.7 3.5 0.00 0.00 0.00 76 1012.6
20260507205846 58 352 1.7 3.5 0.00 0.00 0.00 75 1012.5
20260507205746 58 351 1.7 3.5 0.00 0.00 0.00 75 1012.6
20260507205645 58 352 1.7 3.5 0.00 0.00 0.00 76 1012.6
20260507205545 58 352 2.6 3.5 0.00 0.00 0.00 76 1012.5
20260507205445 58 352 2.6 3.5 0.00 0.00 0.00 76 1012.5
20260507205344 58 352 2.6 3.5 0.00 0.00 0.00 76 1012.6
20260507205246 58 353 2.6 3.5 0.00 0.00 0.00 76 1012.5
20260507205145 58 352 2.6 3.5 0.00 0.00 0.00 76 1012.5
20260507205045 58 350 2.6 3.5 0.00 0.00 0.00 77 1012.5
20260507204945 58 350 2.6 3.5 0.00 0.00 0.00 77 1012.5
20260507204844 58 351 2.6 3.5 0.00 0.00 0.00 76 1012.4
20260507204744 58 351 2.6 3.5 0.00 0.00 0.00 76 1012.5
20260507204645 58 348 2.6 3.5 0.00 0.00 0.00 76 1012.5
20260507204544 58 345 2.6 3.5 0.00 0.00 0.00 76 1012.6
20260507204446 58 341 2.6 3.5 0.00 0.00 0.00 76 1012.5
20260507204346 58 337 1.7 3.5 0.00 0.00 0.00 76 1012.5
20260507204246 58 332 1.7 3.5 0.00 0.00 0.00 76 1012.5
20260507204145 58 328 1.7 3.5 0.00 0.00 0.00 76 1012.4
20260507204045 59 322 1.7 3.5 0.00 0.00 0.00 76 1012.5
20260507203945 59 318 1.7 2.6 0.00 0.00 0.00 75 1012.4
20260507203845 59 314 0.9 1.7 0.00 0.00 0.00 75 1012.4
20260507203745 59 310 0.9 1.7 0.00 0.00 0.00 75 1012.4
20260507203644 59 308 0.9 1.7 0.00 0.00 0.00 74 1012.4
20260507203546 59 306 0.9 1.7 0.00 0.00 0.00 74 1012.3
20260507203446 59 304 0.0 1.7 0.00 0.00 0.00 74 1012.3
20260507203346 60 300 0.0 1.7 0.00 0.00 0.00 74 1012.3
20260507203245 60 294 0.0 1.7 0.00 0.00 0.00 74 1012.2
20260507203145 60 276 0.0 0.9 0.00 0.00 0.00 74 1012.2
20260507203045 60 263 0.0 0.9 0.00 0.00 0.00 74 1012.2
20260507202944 60 263 0.0 0.9 0.00 0.00 0.00 74 1012.2
20260507202846 60 263 0.0 0.9 0.00 0.00 0.00 74 1012.1
20260507202746 60 263 0.0 0.9 0.00 0.00 0.00 73 1012.2
20260507202645 60 264 0.0 0.9 0.00 0.00 0.00 73 1012.1
20260507202545 60 264 0.0 0.9 0.00 0.00 0.00 73 1012.1
20260507202445 60 264 0.0 0.9 0.00 0.00 0.00 73 1012.1
20260507202344 60 264 0.0 0.9 0.00 0.00 0.00 73 1012.1
20260507202246 60 264 0.0 0.9 0.00 0.00 0.00 72 1012.1
20260507202146 60 261 0.0 0.0 0.00 0.00 0.00 72 1011.9
20260507202045 60 259 0.0 0.0 0.00 0.00 0.00 72 1011.9
20260507201944 60 259 0.0 0.0 0.00 0.00 0.00 72 1011.9
20260507201844 60 249 0.0 0.9 0.00 0.00 0.00 71 1011.9
20260507201746 60 235 0.0 0.9 0.00 0.00 0.00 71 1011.9
20260507201645 60 225 0.0 1.7 0.00 0.00 0.00 71 1011.9
20260507201545 60 222 0.0 1.7 0.00 0.00 0.00 71 1011.8
20260507201444 60 222 0.0 1.7 0.00 0.00 0.00 71 1011.9
20260507201346 60 222 0.0 1.7 0.00 0.00 0.00 71 1011.9
20260507201246 60 219 0.9 1.7 0.00 0.00 0.00 71 1011.8
20260507201145 60 219 0.9 1.7 0.00 0.00 0.00 71 1011.7
20260507201045 60 219 0.9 1.7 0.00 0.00 0.00 70 1011.7
20260507200946 60 219 0.9 1.7 0.00 0.00 0.00 70 1011.7
20260507200845 60 218 0.9 1.7 0.00 0.00 0.00 70 1011.7
20260507200745 60 216 0.9 1.7 0.00 0.00 0.00 70 1011.7
20260507200645 60 214 0.9 1.7 0.00 0.00 0.00 70 1011.7
20260507200545 60 213 0.9 1.7 0.00 0.00 0.00 70 1011.7
20260507200445 60 212 0.9 1.7 0.00 0.00 0.00 70 1011.7
20260507200345 60 210 0.9 1.7 0.00 0.00 0.00 70 1011.8
20260507200245 60 209 0.9 1.7 0.00 0.00 0.00 70 1011.6
20260507200145 60 207 0.0 1.7 0.00 0.00 0.00 70 1011.7
20260507200045 60 205 0.0 1.7 0.00 0.00 0.00 70 1011.6
20260507195946 60 200 0.0 1.7 0.00 0.00 0.00 70 1011.5
20260507195846 60 196 0.0 1.7 0.00 0.00 0.00 70 1011.5
20260507195746 60 196 0.0 0.9 0.00 0.00 0.00 70 1011.5
20260507195644 60 195 0.0 0.9 0.00 0.00 0.00 70 1011.5
20260507195544 60 192 0.0 0.9 0.00 0.00 0.00 70 1011.5
20260507195444 61 189 0.0 0.9 0.00 0.00 0.00 70 1011.5
20260507195346 61 188 0.0 1.7 0.00 0.00 0.00 70 1011.5
20260507195244 61 191 0.0 1.7 0.00 0.00 0.00 70 1011.5
20260507195146 61 192 0.0 1.7 0.00 0.00 0.00 70 1011.5
20260507195045 61 194 0.0 1.7 0.00 0.00 0.00 69 1011.5
20260507194945 61 194 0.0 1.7 0.00 0.00 0.00 69 1011.4
20260507194845 60 194 0.0 1.7 0.00 0.00 0.00 69 1011.4
20260507194745 61 198 0.0 1.7 0.00 0.00 0.00 69 1011.4
20260507194646 61 206 0.0 1.7 0.00 0.00 0.00 69 1011.3
20260507194546 61 210 0.0 1.7 0.00 0.00 0.00 69 1011.4
20260507194445 61 218 0.0 1.7 0.00 0.00 0.00 69 1011.4
20260507194345 61 220 0.0 1.7 0.00 0.00 0.00 69 1011.3
20260507194245 61 196 0.0 2.6 0.00 0.00 0.00 69 1011.2
20260507194144 61 182 0.0 2.6 0.00 0.00 0.00 70 1011.4
20260507194044 61 172 0.0 2.6 0.00 0.00 0.00 69 1011.4
20260507193944 61 171 0.9 2.6 0.00 0.00 0.00 69 1011.1
20260507193845 61 172 0.9 2.6 0.00 0.00 0.00 69 1011.2
20260507193745 61 169 0.9 2.6 0.00 0.00 0.00 69 1011.2
20260507193645 61 167 0.9 3.5 0.00 0.00 0.00 69 1011.1
20260507193544 61 172 1.7 3.5 0.00 0.00 0.00 68 1011.1
20260507193444 61 173 1.7 3.5 0.00 0.00 0.00 68 1011.0
20260507193346 61 176 1.7 7.0 0.00 0.00 0.00 68 1011.1
20260507193245 61 179 1.7 7.0 0.00 0.00 0.00 68 1011.0
20260507193145 61 182 2.6 7.0 0.00 0.00 0.00 68 1011.1
20260507193045 61 182 2.6 7.0 0.00 0.00 0.00 68 1011.0
20260507192944 61 186 2.6 7.0 0.00 0.00 0.00 68 1011.0
20260507192844 61 188 3.5 7.0 0.00 0.00 0.00 68 1011.0
20260507192744 61 189 3.5 7.0 0.00 0.00 0.00 68 1011.0
20260507192646 61 191 3.5 7.0 0.00 0.00 0.00 68 1011.0
20260507192546 61 191 3.5 7.0 0.00 0.00 0.00 68 1010.9
20260507192446 61 193 4.3 7.0 0.00 0.00 0.00 68 1010.9
20260507192345 61 194 3.5 7.0 0.00 0.00 0.00 68 1011.0
20260507192245 61 194 4.3 7.0 0.00 0.00 0.00 68 1010.9
20260507192145 61 196 4.3 7.0 0.00 0.00 0.00 68 1010.9
20260507192044 61 198 4.3 7.0 0.00 0.00 0.00 68 1011.0
20260507191944 61 198 4.3 7.0 0.00 0.00 0.00 68 1010.9
20260507191846 61 200 4.3 7.0 0.00 0.00 0.00 68 1010.9
20260507191745 61 201 4.3 7.0 0.00 0.00 0.00 68 1010.9
20260507191645 61 203 4.3 7.0 0.00 0.00 0.00 68 1010.8
20260507191545 61 204 4.3 7.0 0.00 0.00 0.00 68 1010.9
20260507191444 61 206 4.3 7.0 0.00 0.00 0.00 68 1010.9
20260507191346 61 208 3.5 7.0 0.00 0.00 0.00 68 1010.9
20260507191246 61 211 3.5 7.0 0.00 0.01 0.00 67 1010.8
20260507191145 61 213 3.5 7.0 0.00 0.01 0.00 67 1010.8
20260507191045 62 215 3.5 7.0 0.00 0.01 0.00 67 1010.9
20260507190944 62 216 3.5 7.0 0.00 0.01 0.00 67 1010.9
20260507190846 62 219 3.5 7.0 0.00 0.01 0.00 67 1010.9
20260507190746 62 223 2.6 7.0 0.00 0.01 0.00 67 1010.8
20260507190645 62 225 2.6 7.0 0.00 0.01 0.00 67 1010.9
20260507190545 62 226 2.6 7.0 0.00 0.01 0.00 67 1010.7
20260507190445 62 225 3.5 7.0 0.00 0.01 0.00 67 1010.9
20260507190345 62 222 3.5 7.0 0.00 0.02 0.00 67 1010.8
20260507190245 62 220 3.5 7.0 0.00 0.02 0.00 67 1010.8
20260507190145 62 218 3.5 7.0 0.00 0.02 0.00 67 1010.8
20260507190046 62 216 3.5 7.0 0.00 0.02 0.00 67 1010.8
20260507185945 62 215 3.5 7.0 0.00 0.02 0.00 67 1010.8
20260507185845 62 213 3.5 6.1 0.00 0.03 0.00 67 1010.8
20260507185745 62 211 3.5 6.1 0.00 0.03 0.00 67 1010.7
20260507185644 62 208 4.3 7.8 0.00 0.03 0.00 67 1010.7
20260507185544 62 207 4.3 7.8 0.00 0.03 0.00 67 1010.7
20260507185444 62 206 4.3 7.8 0.00 0.03 0.00 67 1010.7
20260507185345 62 205 4.3 7.8 0.00 0.03 0.00 67 1010.7
20260507185245 62 205 4.3 7.8 0.00 0.03 0.00 67 1010.7
20260507185145 62 205 4.3 7.8 0.00 0.03 0.00 67 1010.7
20260507185044 62 205 4.3 7.8 0.00 0.04 0.00 67 1010.6
20260507184944 62 205 4.3 7.8 0.00 0.04 0.00 67 1010.7
20260507184846 62 205 5.2 7.8 0.00 0.04 0.00 67 1010.7
20260507184745 62 204 5.2 7.8 0.00 0.04 0.00 66 1010.7
20260507184645 62 205 5.2 8.7 0.00 0.04 0.00 67 1010.7
20260507184545 62 205 5.2 8.7 0.00 0.05 0.00 66 1010.7
20260507184444 62 205 5.2 8.7 0.00 0.05 0.00 66 1010.7
20260507184344 62 205 5.2 8.7 0.00 0.05 0.00 66 1010.6
20260507184246 62 206 5.2 8.7 0.00 0.05 0.00 66 1010.6
20260507184145 62 205 5.2 8.7 0.00 0.06 0.00 66 1010.7
20260507184045 62 206 5.2 8.7 0.00 0.06 0.00 66 1010.6
20260507183945 62 206 5.2 8.7 0.00 0.06 0.00 66 1010.7
20260507183845 62 207 4.3 8.7 0.00 0.06 0.00 66 1010.6
20260507183745 62 208 4.3 8.7 0.00 0.06 0.00 66 1010.6
20260507183645 62 207 4.3 7.8 0.00 0.07 0.00 66 1010.6
20260507183544 62 208 4.3 7.8 0.00 0.07 0.00 66 1010.7
20260507183444 62 209 4.3 7.8 0.00 0.07 0.00 66 1010.7
20260507183346 62 209 4.3 7.0 0.00 0.07 0.00 66 1010.6
20260507183246 62 210 3.5 7.0 0.00 0.08 0.00 66 1010.6
20260507183146 62 211 3.5 6.1 0.00 0.09 0.00 65 1010.6
20260507183045 62 212 3.5 6.1 0.00 0.10 0.00 65 1010.6
20260507182944 62 214 2.6 6.1 0.00 0.10 0.00 65 1010.6
20260507182846 62 216 2.6 6.1 0.00 0.11 0.00 65 1010.6
20260507182746 62 217 2.6 6.1 0.00 0.11 0.00 65 1010.5
20260507182645 62 220 2.6 6.1 0.00 0.11 0.00 65 1010.6
20260507182545 63 220 1.7 6.1 0.00 0.11 0.00 65 1010.5
20260507182445 63 222 1.7 6.1 0.00 0.11 0.00 65 1010.5
20260507182345 63 226 0.9 3.5 0.00 0.12 0.00 65 1010.5
20260507182245 63 227 0.9 3.5 0.00 0.12 0.00 65 1010.5
20260507182145 63 232 0.9 3.5 0.00 0.12 0.00 65 1010.4
20260507182044 63 233 0.9 3.5 0.00 0.12 0.00 65 1010.4
20260507181944 63 238 0.9 3.5 0.00 0.12 0.00 65 1010.4
20260507181846 63 242 0.9 3.5 0.00 0.12 0.00 65 1010.4
20260507181745 63 250 0.0 1.7 0.00 0.12 0.00 65 1010.4
20260507181645 63 254 0.0 1.7 0.00 0.12 0.00 65 1010.4
20260507181545 63 260 0.0 1.7 0.00 0.12 0.00 65 1010.3
20260507181444 63 263 0.0 1.7 0.00 0.12 0.00 65 1010.3
20260507181346 62 268 0.0 1.7 0.00 0.12 0.00 65 1010.3
20260507181246 62 278 0.0 1.7 0.00 0.12 0.00 65 1010.2
20260507181144 62 292 0.0 1.7 0.00 0.12 0.00 65 1010.3
20260507181044 62 311 0.0 0.9 0.00 0.12 0.00 64 1010.3
20260507180944 62 321 0.0 0.9 0.00 0.12 0.00 64 1010.3
20260507180845 63 322 0.0 0.9 0.00 0.12 0.00 64 1010.3
20260507180745 63 320 0.0 0.0 0.00 0.12 0.00 64 1010.3
20260507180645 63 318 0.0 0.9 0.00 0.12 0.00 64 1010.3
20260507180545 63 316 0.0 0.9 0.00 0.12 0.00 64 1010.3
20260507180445 63 315 0.0 0.9 0.00 0.12 0.00 64 1010.2
20260507180346 63 315 0.0 0.9 0.00 0.12 0.00 63 1010.2
20260507180245 63 312 0.0 0.9 0.00 0.12 0.00 63 1010.2
20260507180145 63 297 0.0 1.7 0.00 0.12 0.00 63 1010.2
20260507180045 63 277 0.0 1.7 0.00 0.12 0.00 63 1010.1
20260507175944 63 266 0.0 2.6 0.00 0.12 0.00 63 1010.1
20260507175844 64 254 0.9 2.6 0.00 0.12 0.00 63 1010.1
20260507175746 64 240 0.9 3.5 0.00 0.12 0.00 63 1010.1
20260507175645 64 231 0.9 3.5 0.00 0.12 0.00 63 1010.1
20260507175545 64 224 1.7 3.5 0.00 0.12 0.00 63 1010.1
20260507175445 64 221 1.7 5.2 0.00 0.12 0.00 63 1010.1
20260507175345 64 217 1.7 5.2 0.00 0.12 0.00 63 1010.1
20260507175244 64 213 2.6 5.2 0.00 0.12 0.00 63 1010.0
20260507175144 64 211 2.6 5.2 0.00 0.12 0.00 63 1010.1
20260507175045 64 210 2.6 5.2 0.00 0.12 0.00 63 1010.1
20260507174945 64 210 3.5 5.2 0.00 0.12 0.00 62 1010.0
20260507174845 64 210 3.5 5.2 0.00 0.12 0.00 62 1010.0
20260507174745 64 210 3.5 5.2 0.00 0.12 0.00 62 1010.0
20260507174646 64 209 3.5 5.2 0.00 0.12 0.00 62 1010.1
20260507174546 64 209 3.5 5.2 0.00 0.12 0.00 63 1010.1
20260507174445 64 210 3.5 5.2 0.00 0.12 0.00 62 1010.1
20260507174345 64 211 3.5 5.2 0.00 0.12 0.00 62 1010.1
20260507174245 64 211 3.5 5.2 0.00 0.12 0.00 62 1010.1
20260507174146 64 212 3.5 5.2 0.00 0.12 0.00 62 1010.1
20260507174046 64 212 3.5 6.1 0.00 0.12 0.00 62 1010.1
20260507173946 64 211 3.5 6.1 0.00 0.12 0.00 62 1010.0
20260507173845 64 211 3.5 6.1 0.00 0.12 0.00 62 1010.0
20260507173745 64 210 3.5 6.1 0.00 0.12 0.00 61 1010.0
20260507173646 64 211 3.5 6.1 0.00 0.12 0.00 61 1010.0
20260507173545 64 210 3.5 6.1 0.00 0.12 0.00 61 1010.0
20260507173445 64 209 3.5 6.1 0.00 0.12 0.00 60 1010.0
20260507173345 64 208 3.5 6.1 0.00 0.12 0.00 61 1009.9
20260507173244 64 208 3.5 6.1 0.00 0.12 0.00 60 1009.9
20260507173144 65 208 3.5 6.1 0.00 0.12 0.00 60 1009.9
20260507173044 65 208 3.5 5.2 0.00 0.12 0.00 60 1009.9
20260507172946 65 209 3.5 5.2 0.00 0.12 0.00 60 1009.9
20260507172846 65 209 3.5 5.2 0.00 0.12 0.00 59 1009.9
20260507172746 65 209 3.5 5.2 0.00 0.12 0.00 59 1009.9
20260507172644 65 209 2.6 5.2 0.00 0.12 0.00 59 1009.9
20260507172544 65 209 2.6 3.5 0.00 0.12 0.00 59 1009.8
20260507172444 65 209 2.6 3.5 0.00 0.12 0.00 58 1009.8
20260507172344 65 209 2.6 3.5 0.00 0.12 0.00 58 1009.8
20260507172244 65 209 2.6 3.5 0.00 0.12 0.00 58 1009.8
20260507172146 65 208 2.6 3.5 0.00 0.12 0.00 58 1009.8
20260507172045 65 208 2.6 3.5 0.00 0.12 0.00 57 1009.8
20260507171945 65 207 2.6 3.5 0.00 0.12 0.00 56 1009.7
20260507171845 65 207 2.6 3.5 0.00 0.12 0.00 56 1009.8
20260507171744 65 207 2.6 5.2 0.00 0.12 0.00 55 1009.7
20260507171644 65 206 2.6 5.2 0.00 0.12 0.00 55 1009.8
20260507171546 65 205 2.6 5.2 0.00 0.12 0.00 55 1009.7
20260507171445 65 205 3.5 5.2 0.00 0.12 0.00 54 1009.7
20260507171345 65 205 3.5 5.2 0.00 0.12 0.00 54 1009.7
20260507171245 66 205 3.5 5.2 0.00 0.12 0.00 54 1009.7
20260507171144 66 204 3.5 5.2 0.00 0.12 0.00 55 1009.7
20260507171044 66 204 3.5 5.2 0.00 0.12 0.00 54 1009.8
20260507170944 66 204 3.5 5.2 0.00 0.12 0.00 54 1009.8
20260507170846 66 203 2.6 5.2 0.00 0.12 0.00 54 1009.8
20260507170746 66 201 2.6 5.2 0.00 0.12 0.00 54 1009.7
20260507170646 66 200 2.6 5.2 0.00 0.12 0.00 53 1009.6
20260507170545 66 198 2.6 5.2 0.00 0.12 0.00 53 1009.6
20260507170445 66 194 2.6 5.2 0.00 0.12 0.00 53 1009.6
20260507170345 66 196 2.6 5.2 0.00 0.12 0.00 52 1009.6
20260507170245 66 195 2.6 5.2 0.00 0.12 0.00 53 1009.5
20260507170146 67 195 2.6 5.2 0.00 0.12 0.00 52 1009.6
20260507170046 67 193 1.7 5.2 0.00 0.12 0.00 53 1009.6
20260507165946 67 193 1.7 5.2 0.00 0.12 0.00 52 1009.6
20260507165845 67 197 2.6 5.2 0.00 0.12 0.00 52 1009.5
20260507165745 67 202 2.6 5.2 0.00 0.12 0.00 52 1009.5
20260507165644 67 206 2.6 5.2 0.00 0.12 0.00 51 1009.4
20260507165544 67 209 1.7 5.2 0.00 0.12 0.00 51 1009.5
20260507165444 67 216 1.7 5.2 0.00 0.12 0.00 50 1009.5
20260507165346 67 214 1.7 5.2 0.00 0.12 0.00 51 1009.6
20260507165245 67 220 1.7 5.2 0.00 0.12 0.00 51 1009.5
20260507165145 67 224 1.7 5.2 0.00 0.12 0.00 51 1009.6
20260507165045 67 227 1.7 5.2 0.00 0.12 0.00 50 1009.5
20260507164945 67 232 1.7 5.2 0.00 0.12 0.00 50 1009.5
20260507164845 67 233 1.7 5.2 0.00 0.12 0.00 50 1009.5
20260507164745 68 233 1.7 5.2 0.00 0.12 0.00 50 1009.5
20260507164646 68 238 0.9 5.2 0.00 0.12 0.00 50 1009.5
20260507164547 68 244 0.9 5.2 0.00 0.12 0.00 50 1009.5
20260507164445 68 244 0.9 5.2 0.00 0.12 0.00 50 1009.5
20260507164345 68 253 0.9 5.2 0.00 0.12 0.00 50 1009.4
20260507164245 68 260 0.9 3.5 0.00 0.12 0.00 49 1009.5
20260507164144 68 266 0.9 3.5 0.00 0.12 0.00 49 1009.5
20260507164046 68 277 0.9 3.5 0.00 0.12 0.00 50 1009.6
20260507163946 68 279 0.9 3.5 0.00 0.12 0.00 50 1009.6
20260507163845 68 283 1.7 3.5 0.00 0.12 0.00 50 1009.6
20260507163745 68 288 1.7 3.5 0.00 0.12 0.00 50 1009.5
20260507163645 68 291 1.7 3.5 0.00 0.12 0.00 50 1009.5
20260507163545 68 300 1.7 3.5 0.00 0.12 0.00 50 1009.5
20260507163444 68 309 1.7 3.5 0.00 0.12 0.00 50 1009.5
20260507163344 68 317 1.7 3.5 0.00 0.12 0.00 50 1009.5
20260507163246 68 323 0.9 3.5 0.00 0.12 0.00 50 1009.5
20260507163145 68 329 0.9 3.5 0.00 0.12 0.00 50 1009.5
20260507163045 68 333 0.9 3.5 0.00 0.12 0.00 52 1009.5
20260507162945 68 334 0.9 2.6 0.00 0.12 0.00 52 1009.5
20260507162845 68 332 0.9 2.6 0.00 0.12 0.00 52 1009.5
20260507162745 68 331 0.9 3.5 0.00 0.12 0.00 52 1009.4
20260507162646 68 329 1.7 3.5 0.00 0.12 0.00 52 1009.3
20260507162546 68 326 1.7 3.5 0.00 0.12 0.00 51 1009.3
20260507162445 69 319 1.7 3.5 0.00 0.12 0.00 51 1009.4
20260507162345 69 304 1.7 3.5 0.00 0.12 0.00 50 1009.4
20260507162244 69 283 1.7 5.2 0.00 0.12 0.00 50 1009.4
20260507162146 69 268 1.7 5.2 0.00 0.12 0.00 49 1009.4
20260507162046 69 253 1.7 5.2 0.00 0.12 0.00 48 1009.3
20260507161946 69 243 1.7 6.1 0.00 0.12 0.00 47 1009.2
20260507161845 70 242 1.7 6.1 0.00 0.12 0.00 47 1009.2
20260507161745 70 237 1.7 6.1 0.00 0.12 0.00 46 1009.2
20260507161646 70 224 1.7 6.1 0.00 0.12 0.00 42 1009.2
20260507161546 70 212 1.7 6.1 0.00 0.12 0.00 41 1009.2
20260507161446 70 200 2.6 6.1 0.00 0.12 0.00 41 1009.2
20260507161346 71 189 1.7 6.1 0.00 0.12 0.00 41 1009.1
20260507161245 71 142 1.7 6.1 0.00 0.12 0.00 43 1009.1
20260507161144 71 129 2.6 7.8 0.00 0.12 0.00 44 1009.1
20260507161046 71 105 1.7 7.8 0.00 0.12 0.00 44 1009.1
20260507160946 71 100 1.7 7.8 0.00 0.12 0.00 42 1009.1
20260507160844 70 100 1.7 7.8 0.00 0.12 0.00 42 1009.1
20260507160744 70 98 1.7 7.8 0.00 0.12 0.00 41 1009.1
20260507160646 70 96 1.7 7.8 0.00 0.12 0.00 41 1009.1
20260507160545 70 91 1.7 7.8 0.00 0.12 0.00 41 1009.2
20260507160445 70 80 1.7 7.8 0.00 0.12 0.00 41 1009.3
20260507160344 70 73 1.7 7.8 0.00 0.12 0.00 41 1009.2
20260507160246 70 63 1.7 7.8 0.00 0.12 0.00 42 1009.2
20260507160145 70 38 1.7 5.2 0.00 0.12 0.00 42 1009.1
20260507160045 70 48 1.7 6.1 0.00 0.12 0.00 43 1009.2
20260507155945 70 47 1.7 6.1 0.00 0.12 0.00 44 1009.1
20260507155844 70 47 1.7 6.1 0.00 0.12 0.00 44 1009.1
20260507155744 70 46 1.7 6.1 0.00 0.12 0.00 44 1009.1
20260507155645 70 52 1.7 7.0 0.00 0.12 0.00 44 1009.1
20260507155546 70 56 1.7 7.0 0.00 0.12 0.00 44 1009.1
20260507155445 70 64 2.6 7.0 0.00 0.12 0.00 44 1009.1
20260507155345 70 76 2.6 7.0 0.00 0.12 0.00 44 1009.1
20260507155244 70 80 2.6 7.0 0.00 0.12 0.00 42 1009.1
20260507155146 70 85 2.6 7.0 0.00 0.12 0.00 43 1009.2
20260507155045 71 83 2.6 7.0 0.00 0.12 0.00 43 1009.2
20260507154945 70 74 2.6 7.0 0.00 0.12 0.00 43 1009.1
20260507154844 70 70 2.6 7.0 0.00 0.12 0.00 44 1009.2
20260507154744 70 71 2.6 7.0 0.00 0.12 0.00 44 1009.1
20260507154645 70 65 2.6 7.0 0.00 0.12 0.00 44 1009.3
20260507154545 70 61 1.7 7.0 0.00 0.12 0.00 44 1009.2
20260507154444 70 57 1.7 7.0 0.00 0.12 0.00 43 1009.1
20260507154344 70 26 1.7 6.1 0.00 0.12 0.00 43 1009.1
20260507154244 70 22 0.9 6.1 0.00 0.12 0.00 44 1009.1
20260507154145 70 15 0.9 5.2 0.00 0.12 0.00 45 1009.1
20260507154045 70 12 0.9 5.2 0.00 0.12 0.00 44 1009.0
20260507153946 70 352 0.9 3.5 0.00 0.12 0.00 44 1009.1
20260507153845 71 316 0.9 3.5 0.00 0.12 0.00 45 1009.0
20260507153745 71 266 0.9 3.5 0.00 0.12 0.00 45 1009.1
20260507153646 71 237 0.9 5.2 0.00 0.12 0.00 44 1009.1
20260507153546 71 231 0.9 5.2 0.00 0.12 0.00 44 1009.1
20260507153446 71 235 0.9 5.2 0.00 0.12 0.00 43 1009.1
20260507153346 71 225 0.9 5.2 0.00 0.12 0.00 43 1009.2
20260507153245 71 218 0.9 5.2 0.00 0.12 0.00 43 1009.2
20260507153145 70 218 0.9 5.2 0.00 0.12 0.00 43 1009.1
20260507153045 70 221 1.7 5.2 0.00 0.12 0.00 43 1009.1
20260507152944 70 221 1.7 5.2 0.00 0.12 0.00 43 1009.2
20260507152844 70 217 1.7 5.2 0.00 0.12 0.00 42 1009.3
20260507152744 70 208 1.7 5.2 0.00 0.12 0.00 42 1009.3
20260507152645 70 207 1.7 6.1 0.00 0.12 0.00 43 1009.2
20260507152545 70 207 1.7 7.0 0.00 0.12 0.00 44 1009.2
20260507152445 70 208 2.6 7.8 0.00 0.12 0.00 43 1009.2
20260507152346 70 208 2.6 7.8 0.00 0.12 0.00 43 1009.2
20260507152244 70 208 2.6 7.8 0.00 0.12 0.00 44 1009.3
20260507152146 69 207 2.6 7.8 0.00 0.12 0.00 44 1009.3
20260507152045 69 206 2.6 7.8 0.00 0.12 0.00 44 1009.2
20260507151945 69 207 2.6 7.8 0.00 0.12 0.00 43 1009.2
20260507151845 69 212 3.5 7.8 0.00 0.12 0.00 43 1009.3
20260507151745 70 210 3.5 7.8 0.00 0.12 0.00 43 1009.2
20260507151646 70 210 3.5 7.8 0.00 0.12 0.00 42 1009.2
20260507151546 70 212 2.6 7.8 0.00 0.12 0.00 43 1009.3
20260507151445 70 207 2.6 7.0 0.00 0.12 0.00 43 1009.2
20260507151345 70 209 2.6 7.0 0.00 0.12 0.00 44 1009.2
20260507151245 70 209 3.5 7.0 0.00 0.12 0.00 44 1009.2
20260507151145 70 208 3.5 7.0 0.00 0.12 0.00 44 1009.2
20260507151045 70 203 3.5 7.8 0.00 0.12 0.00 44 1009.2
20260507150945 70 196 4.3 7.8 0.00 0.12 0.00 44 1009.3
20260507150844 70 189 4.3 7.8 0.00 0.12 0.00 44 1009.3
20260507150744 70 191 4.3 7.8 0.00 0.12 0.00 45 1009.3
20260507150646 69 192 4.3 7.8 0.00 0.12 0.00 45 1009.4
20260507150545 69 192 4.3 7.8 0.00 0.12 0.00 44 1009.3
20260507150445 69 192 3.5 7.8 0.00 0.12 0.00 45 1009.4
20260507150345 70 187 3.5 7.8 0.00 0.12 0.00 45 1009.3
20260507150245 69 182 3.5 7.8 0.00 0.12 0.00 45 1009.3
20260507150145 69 176 3.5 7.8 0.00 0.12 0.00 44 1009.3
20260507150045 70 172 2.6 7.0 0.00 0.12 0.00 44 1009.3
20260507145944 70 168 2.6 7.0 0.00 0.12 0.00 44 1009.3
20260507145844 70 164 2.6 7.0 0.00 0.12 0.00 44 1009.3
20260507145744 70 158 1.7 7.0 0.00 0.12 0.00 44 1009.3
20260507145645 70 146 1.7 7.0 0.00 0.12 0.00 45 1009.3
20260507145545 70 131 1.7 7.0 0.00 0.12 0.00 46 1009.4
20260507145445 70 126 1.7 7.0 0.00 0.12 0.00 45 1009.4
20260507145346 70 125 1.7 7.0 0.00 0.12 0.00 45 1009.4
20260507145245 70 132 1.7 7.0 0.00 0.12 0.00 44 1009.4
20260507145145 70 140 1.7 6.1 0.00 0.12 0.00 45 1009.4
20260507145045 70 142 1.7 3.5 0.00 0.12 0.00 46 1009.3
20260507144945 70 148 1.7 3.5 0.00 0.12 0.00 46 1009.3
20260507144844 70 150 1.7 3.5 0.00 0.12 0.00 45 1009.4
20260507144746 70 157 1.7 3.5 0.00 0.12 0.00 46 1009.4
20260507144646 70 171 1.7 3.5 0.00 0.12 0.00 45 1009.3
20260507144546 70 181 1.7 3.5 0.00 0.12 0.00 46 1009.4
20260507144445 70 182 1.7 3.5 0.00 0.12 0.00 46 1009.4
20260507144346 70 183 1.7 3.5 0.00 0.12 0.00 46 1009.4
20260507144246 70 192 0.9 3.5 0.00 0.12 0.00 46 1009.4
20260507144145 70 175 0.9 3.5 0.00 0.12 0.00 47 1009.4
20260507144045 70 167 0.9 3.5 0.00 0.12 0.00 47 1009.4
20260507143945 70 167 0.9 3.5 0.00 0.12 0.00 47 1009.3
20260507143846 70 175 0.9 3.5 0.00 0.12 0.00 47 1009.5
20260507143746 69 165 0.9 3.5 0.00 0.12 0.00 47 1009.4
20260507143646 69 132 0.9 3.5 0.00 0.12 0.00 48 1009.4
20260507143545 69 122 0.9 3.5 0.00 0.12 0.00 46 1009.4
20260507143445 70 126 0.9 3.5 0.00 0.12 0.00 47 1009.4
20260507143346 70 155 0.0 3.5 0.00 0.12 0.00 47 1009.4
20260507143245 70 158 0.0 3.5 0.00 0.12 0.00 47 1009.4
20260507143145 70 182 0.0 3.5 0.00 0.12 0.00 46 1009.4
20260507143045 70 198 0.0 0.9 0.00 0.12 0.00 46 1009.3
20260507142944 70 182 0.0 0.9 0.00 0.12 0.00 47 1009.5
20260507142844 70 170 0.0 2.6 0.00 0.12 0.00 46 1009.3
20260507142744 70 167 0.9 3.5 0.00 0.12 0.00 46 1009.5
20260507142646 70 181 0.9 6.1 0.00 0.12 0.00 46 1009.5
20260507142546 70 191 0.9 6.1 0.00 0.12 0.00 47 1009.4
20260507142446 70 193 1.7 6.1 0.00 0.12 0.00 47 1009.4
20260507142345 70 188 1.7 6.1 0.00 0.12 0.00 47 1009.5
20260507142244 69 188 1.7 6.1 0.00 0.12 0.00 47 1009.5
20260507142146 69 185 1.7 6.1 0.00 0.12 0.00 48 1009.5
20260507142045 69 182 1.7 6.1 0.00 0.12 0.00 47 1009.5
20260507141945 69 176 1.7 6.1 0.00 0.12 0.00 47 1009.5
20260507141844 69 168 1.7 6.1 0.00 0.12 0.00 46 1009.5
20260507141746 69 156 1.7 6.1 0.00 0.12 0.00 46 1009.5
20260507141645 70 144 1.7 6.1 0.00 0.12 0.00 46 1009.6
20260507141545 70 117 0.9 5.2 0.00 0.12 0.00 47 1009.6
20260507141445 70 107 0.9 2.6 0.00 0.12 0.00 46 1009.6
20260507141344 70 102 0.9 3.5 0.00 0.12 0.00 47 1009.7
20260507141244 69 94 0.9 3.5 0.00 0.12 0.00 46 1009.5
20260507141146 69 78 0.9 3.5 0.00 0.12 0.00 46 1009.6
20260507141046 69 73 1.7 3.5 0.00 0.12 0.00 45 1009.5
20260507140946 70 75 1.7 5.2 0.00 0.12 0.00 45 1009.6
20260507140845 71 75 1.7 5.2 0.00 0.12 0.00 45 1009.6
20260507140745 71 76 1.7 5.2 0.00 0.12 0.00 46 1009.6
20260507140646 71 74 1.7 5.2 0.00 0.12 0.00 47 1009.7
20260507140546 71 72 1.7 5.2 0.00 0.12 0.00 47 1009.6
20260507140446 70 70 1.7 5.2 0.00 0.12 0.00 47 1009.7
20260507140345 70 68 1.7 5.2 0.00 0.12 0.00 48 1009.7
20260507140244 70 71 1.7 5.2 0.00 0.12 0.00 47 1009.7
20260507140144 70 71 1.7 5.2 0.00 0.12 0.00 47 1009.6
20260507140044 70 69 0.9 5.2 0.00 0.12 0.00 48 1009.6
20260507135946 70 65 0.9 3.5 0.00 0.12 0.00 48 1009.7
20260507135845 69 59 0.9 3.5 0.00 0.12 0.00 48 1009.8
20260507135745 69 51 0.9 3.5 0.00 0.12 0.00 48 1009.8
20260507135645 69 42 0.9 3.5 0.00 0.12 0.00 49 1009.8
20260507135545 69 34 0.9 3.5 0.00 0.12 0.00 48 1009.8
20260507135445 69 20 0.9 3.5 0.00 0.12 0.00 49 1009.8
20260507135344 69 18 0.9 3.5 0.00 0.12 0.00 48 1009.8
20260507135245 69 26 0.9 3.5 0.00 0.12 0.00 48 1009.8
20260507135144 69 24 0.9 3.5 0.00 0.12 0.00 49 1009.8
20260507135046 69 23 0.9 3.5 0.00 0.12 0.00 48 1009.9
20260507134946 69 20 0.9 2.6 0.00 0.12 0.00 48 1009.9
20260507134845 69 20 0.9 2.6 0.00 0.12 0.00 48 1009.9
20260507134745 69 27 1.7 3.5 0.00 0.12 0.00 48 1009.9
20260507134644 69 29 1.7 5.2 0.00 0.12 0.00 48 1009.9
20260507134544 69 30 1.7 5.2 0.00 0.12 0.00 49 1009.9
20260507134446 69 31 1.7 5.2 0.00 0.12 0.00 49 1009.9
20260507134346 69 43 1.7 7.0 0.00 0.12 0.00 49 1009.9
20260507134245 69 50 1.7 7.0 0.00 0.12 0.00 49 1009.9
20260507134145 69 56 2.6 7.0 0.00 0.12 0.00 49 1010.0
20260507134045 69 58 2.6 7.0 0.00 0.12 0.00 49 1009.9
20260507133945 69 60 2.6 7.0 0.00 0.12 0.00 49 1010.0
20260507133844 69 64 2.6 7.0 0.00 0.12 0.00 48 1010.0
20260507133744 69 65 2.6 7.0 0.00 0.12 0.00 49 1010.0
20260507133644 69 71 2.6 7.0 0.00 0.12 0.00 49 1010.0
20260507133546 69 75 2.6 7.0 0.00 0.12 0.00 50 1010.0
20260507133446 69 77 2.6 7.0 0.00 0.12 0.00 49 1010.0
20260507133346 69 75 2.6 7.0 0.00 0.12 0.00 49 1010.0
20260507133245 69 67 1.7 7.0 0.00 0.12 0.00 48 1010.1
20260507133145 69 60 1.7 5.2 0.00 0.12 0.00 47 1010.1
20260507133045 69 64 1.7 7.0 0.00 0.12 0.00 48 1010.1
20260507132945 69 68 2.6 7.8 0.00 0.12 0.00 49 1010.1
20260507132846 69 65 2.6 7.8 0.00 0.12 0.00 49 1010.1
20260507132746 69 70 2.6 7.8 0.00 0.12 0.00 49 1010.1
20260507132645 69 70 2.6 7.8 0.00 0.12 0.00 48 1010.2
20260507132545 69 69 2.6 7.8 0.00 0.12 0.00 50 1010.3
20260507132445 69 70 2.6 7.8 0.00 0.12 0.00 50 1010.2
20260507132346 68 71 2.6 7.8 0.00 0.12 0.00 50 1010.3
20260507132245 68 73 2.6 7.8 0.00 0.12 0.00 50 1010.3
20260507132145 68 79 2.6 7.8 0.00 0.12 0.00 49 1010.2
20260507132045 68 79 2.6 7.8 0.00 0.12 0.00 49 1010.2
20260507131945 69 76 1.7 7.0 0.00 0.12 0.00 48 1010.2
20260507131845 69 75 1.7 7.0 0.00 0.12 0.00 49 1010.2
20260507131744 69 79 1.7 7.0 0.00 0.12 0.00 49 1010.2
20260507131645 69 77 1.7 7.0 0.00 0.12 0.00 48 1010.3
20260507131545 69 76 1.7 6.1 0.00 0.12 0.00 49 1010.2
20260507131445 69 82 1.7 6.1 0.00 0.12 0.00 50 1010.2
20260507131344 69 89 1.7 6.1 0.00 0.12 0.00 50 1010.2
20260507131244 69 99 1.7 6.1 0.00 0.12 0.00 51 1010.3
20260507131146 69 112 1.7 6.1 0.00 0.12 0.00 51 1010.3
20260507131046 68 130 2.6 7.0 0.00 0.12 0.00 51 1010.4
20260507130946 68 140 2.6 7.0 0.00 0.12 0.00 51 1010.4
20260507130845 68 150 2.6 7.0 0.00 0.12 0.00 51 1010.3
20260507130745 68 156 2.6 7.0 0.00 0.12 0.00 51 1010.3
20260507130646 67 158 2.6 7.0 0.00 0.12 0.00 51 1010.3
20260507130546 67 164 2.6 7.0 0.00 0.12 0.00 50 1010.4
20260507130446 67 170 3.5 7.8 0.00 0.12 0.00 50 1010.4
20260507130345 67 173 3.5 7.8 0.00 0.12 0.00 51 1010.3
20260507130245 67 181 3.5 7.8 0.00 0.12 0.00 50 1010.3
20260507130145 67 184 3.5 7.8 0.00 0.12 0.00 50 1010.3
20260507130045 68 187 3.5 7.8 0.00 0.12 0.00 50 1010.3
20260507125945 68 189 3.5 7.8 0.00 0.12 0.00 50 1010.4
20260507125845 67 194 2.6 7.8 0.00 0.12 0.00 50 1010.4
20260507125745 67 198 3.5 7.8 0.00 0.12 0.00 50 1010.3
20260507125646 67 204 3.5 7.8 0.00 0.12 0.00 50 1010.4
20260507125546 68 210 2.6 7.8 0.00 0.12 0.00 50 1010.4
20260507125446 68 209 2.6 7.8 0.00 0.12 0.00 49 1010.3
20260507125345 68 206 2.6 7.8 0.00 0.12 0.00 49 1010.4
20260507125245 68 202 1.7 7.8 0.00 0.12 0.00 49 1010.3
20260507125144 68 189 1.7 7.0 0.00 0.12 0.00 50 1010.4
20260507125044 68 181 1.7 7.0 0.00 0.12 0.00 49 1010.4
20260507124946 68 174 1.7 7.0 0.00 0.12 0.00 49 1010.4
20260507124846 68 168 1.7 7.0 0.00 0.12 0.00 49 1010.4
20260507124746 68 167 2.6 7.8 0.00 0.12 0.00 48 1010.3
20260507124644 68 167 2.6 7.8 0.00 0.12 0.00 50 1010.4
20260507124544 68 167 2.6 7.8 0.00 0.12 0.00 49 1010.4
20260507124446 68 169 2.6 7.8 0.00 0.12 0.00 50 1010.4
20260507124345 68 168 2.6 7.8 0.00 0.12 0.00 50 1010.3
20260507124244 68 168 2.6 7.8 0.00 0.12 0.00 49 1010.3
20260507124146 68 173 2.6 7.8 0.00 0.12 0.00 52 1010.4
20260507124046 68 172 2.6 7.8 0.00 0.12 0.00 51 1010.5
20260507123946 67 170 2.6 7.8 0.00 0.12 0.00 51 1010.4
20260507123845 67 164 2.6 7.8 0.00 0.12 0.00 51 1010.4
20260507123745 68 152 2.6 7.8 0.00 0.12 0.00 52 1010.4
20260507123644 68 129 1.7 6.1 0.00 0.12 0.00 53 1010.4
20260507123545 68 105 1.7 7.0 0.00 0.12 0.00 53 1010.4
20260507123445 68 98 1.7 7.0 0.00 0.12 0.00 52 1010.4
20260507123345 68 96 2.6 7.8 0.00 0.12 0.00 53 1010.4
20260507123244 68 94 2.6 8.7 0.00 0.12 0.00 53 1010.4
20260507123146 67 95 2.6 8.7 0.00 0.12 0.00 53 1010.5
20260507123045 67 92 3.5 8.7 0.00 0.12 0.00 54 1010.4
20260507122945 67 90 3.5 8.7 0.00 0.12 0.00 54 1010.4
20260507122844 67 89 3.5 8.7 0.00 0.12 0.00 54 1010.4
20260507122744 67 90 3.5 8.7 0.00 0.12 0.00 55 1010.4
20260507122646 67 90 3.5 8.7 0.00 0.12 0.00 55 1010.3
20260507122546 66 90 3.5 8.7 0.00 0.12 0.00 55 1010.3
20260507122446 66 86 3.5 8.7 0.00 0.12 0.00 54 1010.3
20260507122345 67 86 3.5 8.7 0.00 0.12 0.00 55 1010.2
20260507122244 67 87 2.6 8.7 0.00 0.12 0.00 55 1010.4
20260507122146 67 80 2.6 8.7 0.00 0.12 0.00 55 1010.4
20260507122046 67 75 2.6 8.7 0.00 0.12 0.00 55 1010.4
20260507121946 67 74 3.5 8.7 0.00 0.12 0.00 55 1010.4
20260507121845 67 78 3.5 8.7 0.00 0.12 0.00 56 1010.3
20260507121745 66 78 3.5 8.7 0.00 0.12 0.00 56 1010.5
20260507121644 67 81 4.3 8.7 0.00 0.12 0.00 55 1010.5
20260507121544 66 80 4.3 8.7 0.00 0.12 0.00 57 1010.5
20260507121446 66 81 4.3 8.7 0.00 0.12 0.00 57 1010.6
20260507121345 65 83 4.3 8.7 0.00 0.12 0.00 58 1010.6
20260507121245 65 83 5.2 8.7 0.00 0.12 0.00 57 1010.6
20260507121145 65 86 5.2 8.7 0.00 0.12 0.00 57 1010.6
20260507121045 65 87 5.2 8.7 0.00 0.12 0.00 56 1010.7
20260507120945 65 88 5.2 8.7 0.00 0.12 0.00 56 1010.8
20260507120846 65 87 4.3 8.7 0.00 0.12 0.00 56 1010.7
20260507120745 65 87 4.3 8.7 0.00 0.12 0.00 57 1010.7
20260507120644 65 87 4.3 8.7 0.00 0.12 0.00 57 1010.7
20260507120546 65 88 3.5 8.7 0.00 0.12 0.00 56 1010.8
20260507120446 65 90 3.5 8.7 0.00 0.12 0.00 56 1010.7
20260507120346 65 88 2.6 8.7 0.00 0.12 0.00 56 1010.7
20260507120245 65 85 2.6 8.7 0.00 0.12 0.00 56 1010.6
20260507120145 65 81 2.6 7.8 0.00 0.12 0.00 56 1010.7
20260507120044 65 81 2.6 7.8 0.00 0.12 0.00 56 1010.7
20260507115946 65 81 2.6 8.7 0.00 0.12 0.00 58 1010.8
20260507115845 65 79 3.5 8.7 0.00 0.12 0.00 57 1010.7
20260507115745 65 79 3.5 8.7 0.00 0.12 0.00 57 1010.8
20260507115645 65 79 3.5 8.7 0.00 0.12 0.00 57 1010.8
20260507115545 65 79 3.5 8.7 0.00 0.12 0.00 58 1010.8
20260507115445 65 80 3.5 8.7 0.00 0.12 0.00 57 1010.8
20260507115344 65 82 3.5 8.7 0.00 0.12 0.00 57 1010.9
20260507115245 65 85 3.5 8.7 0.00 0.12 0.00 56 1010.7
20260507115145 65 87 3.5 8.7 0.00 0.12 0.00 56 1010.7
20260507115046 66 90 2.6 8.7 0.00 0.12 0.00 56 1010.7
20260507114946 66 97 2.6 7.0 0.00 0.12 0.00 56 1010.8
20260507114846 66 98 2.6 7.0 0.00 0.12 0.00 56 1010.8
20260507114745 66 99 2.6 7.0 0.00 0.12 0.00 56 1010.8
20260507114645 66 102 2.6 7.0 0.00 0.12 0.00 55 1010.8
20260507114545 66 109 2.6 7.0 0.00 0.12 0.00 54 1010.8
20260507114445 67 110 1.7 6.1 0.00 0.12 0.00 54 1010.7
20260507114345 67 114 1.7 5.2 0.00 0.12 0.00 55 1010.7
20260507114245 67 114 1.7 5.2 0.00 0.12 0.00 55 1010.8
20260507114144 67 111 1.7 7.0 0.00 0.12 0.00 55 1010.7
20260507114044 67 108 1.7 7.0 0.00 0.12 0.00 55 1010.8
20260507113946 67 102 2.6 7.0 0.00 0.12 0.00 55 1010.8
20260507113846 67 106 2.6 7.0 0.00 0.12 0.00 55 1010.9
20260507113746 67 103 2.6 7.0 0.00 0.12 0.00 55 1010.8
20260507113645 67 99 2.6 7.0 0.00 0.12 0.00 56 1010.9
20260507113545 67 93 2.6 7.0 0.00 0.12 0.00 56 1011.0
20260507113445 66 89 2.6 7.0 0.00 0.12 0.00 57 1010.9
20260507113344 66 80 2.6 7.0 0.00 0.12 0.00 56 1010.8
20260507113245 66 71 2.6 7.0 0.00 0.12 0.00 56 1011.0
20260507113144 66 61 2.6 7.0 0.00 0.12 0.00 57 1011.0
20260507113044 66 57 2.6 7.0 0.00 0.12 0.00 56 1011.1
20260507112946 66 53 2.6 7.0 0.00 0.12 0.00 56 1011.1
20260507112845 65 51 2.6 7.8 0.00 0.12 0.00 57 1011.0
20260507112745 65 52 2.6 7.8 0.00 0.12 0.00 57 1011.0
20260507112646 65 52 3.5 7.8 0.00 0.12 0.00 58 1011.0
20260507112545 64 56 3.5 7.8 0.00 0.12 0.00 57 1011.1
20260507112445 64 59 3.5 7.8 0.00 0.12 0.00 57 1011.0
20260507112344 65 64 4.3 7.8 0.00 0.12 0.00 57 1011.0
20260507112246 65 69 4.3 8.7 0.00 0.12 0.00 58 1011.2
20260507112145 64 72 4.3 8.7 0.00 0.12 0.00 59 1011.1
20260507112045 64 75 4.3 8.7 0.00 0.12 0.00 59 1011.1
20260507111945 64 77 4.3 8.7 0.00 0.12 0.00 58 1011.2
20260507111845 64 74 4.3 8.7 0.00 0.12 0.00 58 1011.1
20260507111744 64 79 4.3 8.7 0.00 0.12 0.00 59 1011.2
20260507111645 64 78 4.3 8.7 0.00 0.12 0.00 57 1011.2
20260507111545 64 78 4.3 8.7 0.00 0.12 0.00 56 1011.2
20260507111445 64 81 4.3 8.7 0.00 0.12 0.00 57 1011.2
20260507111345 64 82 4.3 9.6 0.00 0.12 0.00 57 1011.2
20260507111245 64 82 4.3 9.6 0.00 0.12 0.00 58 1011.2
20260507111145 64 83 5.2 9.6 0.00 0.12 0.00 57 1011.2
20260507111045 64 84 5.2 9.6 0.00 0.12 0.00 58 1011.2
20260507110945 64 84 5.2 9.6 0.00 0.12 0.00 58 1011.3
20260507110844 64 87 5.2 9.6 0.00 0.12 0.00 59 1011.3
20260507110744 63 86 5.2 9.6 0.00 0.12 0.00 59 1011.3
20260507110646 63 90 5.2 9.6 0.00 0.12 0.00 59 1011.2
20260507110545 63 90 5.2 9.6 0.00 0.12 0.00 58 1011.3
20260507110445 63 90 5.2 9.6 0.00 0.12 0.00 58 1011.3
20260507110345 63 91 4.3 9.6 0.00 0.12 0.00 57 1011.3
20260507110245 63 91 4.3 8.7 0.00 0.12 0.00 57 1011.3
20260507110145 63 91 4.3 8.7 0.00 0.12 0.00 57 1011.3
20260507110045 63 90 3.5 8.7 0.00 0.12 0.00 57 1011.4
20260507105945 63 92 4.3 8.7 0.00 0.12 0.00 58 1011.4
20260507105845 63 90 3.5 8.7 0.00 0.12 0.00 58 1011.4
20260507105744 63 93 4.3 8.7 0.00 0.12 0.00 58 1011.4
20260507105646 63 90 4.3 9.6 0.00 0.12 0.00 59 1011.4
20260507105546 63 88 5.2 9.6 0.00 0.12 0.00 59 1011.4
20260507105446 63 89 5.2 9.6 0.00 0.12 0.00 59 1011.5
20260507105345 63 90 5.2 9.6 0.00 0.12 0.00 58 1011.4
20260507105244 63 92 5.2 9.6 0.00 0.12 0.00 59 1011.5
20260507105146 63 92 5.2 9.6 0.00 0.12 0.00 59 1011.5
20260507105045 63 90 5.2 9.6 0.00 0.12 0.00 60 1011.4
20260507104945 63 86 5.2 9.6 0.00 0.12 0.00 60 1011.5
20260507104845 63 85 5.2 9.6 0.00 0.12 0.00 60 1011.5
20260507104744 63 82 5.2 9.6 0.00 0.12 0.00 59 1011.5
20260507104645 64 83 5.2 8.7 0.00 0.12 0.00 59 1011.5
20260507104545 64 86 4.3 8.7 0.00 0.12 0.00 59 1011.5
20260507104445 64 85 4.3 8.7 0.00 0.12 0.00 59 1011.5
20260507104345 64 82 4.3 8.7 0.00 0.12 0.00 60 1011.4
20260507104245 64 81 4.3 8.7 0.00 0.12 0.00 59 1011.4
20260507104144 64 82 5.2 8.7 0.00 0.12 0.00 58 1011.5
20260507104044 64 84 4.3 8.7 0.00 0.12 0.00 59 1011.4
20260507103944 64 86 4.3 8.7 0.00 0.12 0.00 59 1011.4
20260507103846 64 89 4.3 8.7 0.00 0.12 0.00 59 1011.5
20260507103746 64 90 4.3 8.7 0.00 0.12 0.00 59 1011.5
20260507103644 64 90 5.2 8.7 0.00 0.12 0.00 58 1011.5
20260507103546 64 87 4.3 8.7 0.00 0.12 0.00 58 1011.6
20260507103446 64 87 4.3 8.7 0.00 0.12 0.00 58 1011.5
20260507103346 64 86 4.3 8.7 0.00 0.12 0.00 57 1011.5
20260507103245 64 83 3.5 8.7 0.00 0.12 0.00 57 1011.4
20260507103144 64 80 3.5 8.7 0.00 0.12 0.00 58 1011.6
20260507103044 64 83 4.3 8.7 0.00 0.12 0.00 58 1011.6
20260507102944 64 83 4.3 8.7 0.00 0.12 0.00 57 1011.5
20260507102846 64 81 4.3 8.7 0.00 0.12 0.00 58 1011.5
20260507102746 64 78 4.3 8.7 0.00 0.12 0.00 58 1011.6
20260507102644 64 76 4.3 8.7 0.00 0.12 0.00 59 1011.7
20260507102544 64 77 4.3 8.7 0.00 0.12 0.00 60 1011.7
20260507102446 63 78 4.3 8.7 0.00 0.12 0.00 60 1011.7
20260507102345 63 81 4.3 8.7 0.00 0.12 0.00 60 1011.7
20260507102245 63 83 4.3 8.7 0.00 0.12 0.00 59 1011.7
20260507102144 63 84 5.2 8.7 0.00 0.12 0.00 59 1011.7
20260507102044 63 84 5.2 8.7 0.00 0.12 0.00 59 1011.7
20260507101944 63 84 5.2 8.7 0.00 0.12 0.00 58 1011.6
20260507101845 63 83 5.2 8.7 0.00 0.12 0.00 58 1011.6
20260507101745 64 85 5.2 8.7 0.00 0.12 0.00 59 1011.6
20260507101645 64 86 5.2 8.7 0.00 0.12 0.00 58 1011.6
20260507101544 64 88 5.2 8.7 0.00 0.12 0.00 58 1011.6
20260507101444 64 90 5.2 8.7 0.00 0.12 0.00 59 1011.6
20260507101346 63 90 5.2 8.7 0.00 0.12 0.00 59 1011.6
20260507101246 63 90 5.2 8.7 0.00 0.12 0.00 58 1011.7
20260507101146 64 90 5.2 8.7 0.00 0.12 0.00 58 1011.6
20260507101045 63 90 5.2 8.7 0.00 0.12 0.00 58 1011.6
20260507100945 64 92 4.3 8.7 0.00 0.12 0.00 58 1011.6
20260507100845 64 94 4.3 8.7 0.00 0.12 0.00 57 1011.6
20260507100745 64 96 3.5 7.8 0.00 0.12 0.00 58 1011.7
20260507100645 64 95 3.5 7.8 0.00 0.12 0.00 58 1011.7
20260507100545 64 94 3.5 7.8 0.00 0.12 0.00 58 1011.6
20260507100445 64 92 3.5 7.8 0.00 0.12 0.00 59 1011.6
20260507100345 64 89 3.5 7.8 0.00 0.12 0.00 59 1011.6
20260507100244 64 88 3.5 7.0 0.00 0.12 0.00 58 1011.7
20260507100146 64 86 3.5 7.0 0.00 0.12 0.00 59 1011.7
20260507100046 64 86 3.5 7.8 0.00 0.12 0.00 59 1011.8
20260507095945 63 84 3.5 7.8 0.00 0.12 0.00 59 1011.7
20260507095844 63 84 3.5 7.8 0.00 0.12 0.00 59 1011.7
20260507095744 63 85 3.5 7.8 0.00 0.12 0.00 59 1011.8
20260507095646 63 84 4.3 7.8 0.00 0.12 0.00 59 1011.8
20260507095546 62 82 4.3 7.8 0.00 0.12 0.00 60 1011.8
20260507095446 62 81 4.3 7.8 0.00 0.12 0.00 61 1011.7
20260507095345 62 81 4.3 7.8 0.00 0.12 0.00 60 1011.8
20260507095245 62 83 5.2 7.8 0.00 0.12 0.00 59 1011.9
20260507095144 62 85 5.2 7.8 0.00 0.12 0.00 60 1011.9
20260507095045 62 83 5.2 7.8 0.00 0.12 0.00 59 1011.9
20260507094945 62 82 5.2 7.8 0.00 0.12 0.00 60 1011.9
20260507094845 62 82 5.2 7.8 0.00 0.12 0.00 59 1011.8
20260507094745 62 80 5.2 7.8 0.00 0.12 0.00 58 1011.9
20260507094645 62 80 4.3 7.8 0.00 0.12 0.00 58 1011.9
20260507094545 62 81 5.2 7.8 0.00 0.12 0.00 58 1011.9
20260507094445 62 81 4.3 7.8 0.00 0.12 0.00 60 1011.8
20260507094345 62 81 4.3 7.8 0.00 0.12 0.00 59 1011.8
20260507094245 62 80 4.3 7.8 0.00 0.12 0.00 58 1011.8
20260507094144 62 76 3.5 7.8 0.00 0.12 0.00 59 1011.9
20260507094044 62 76 3.5 7.8 0.00 0.12 0.00 61 1011.9
20260507093944 62 78 3.5 7.8 0.00 0.12 0.00 60 1011.9
20260507093845 62 79 3.5 7.8 0.00 0.12 0.00 61 1011.8
20260507093745 62 75 2.6 7.8 0.00 0.12 0.00 60 1011.9
20260507093645 62 76 2.6 7.8 0.00 0.12 0.00 61 1011.8
20260507093545 62 77 2.6 7.0 0.00 0.12 0.00 61 1011.9
20260507093445 62 80 2.6 7.0 0.00 0.12 0.00 61 1011.8
20260507093344 62 84 2.6 7.0 0.00 0.12 0.00 61 1011.9
20260507093246 62 86 3.5 7.0 0.00 0.12 0.00 61 1011.9
20260507093145 62 90 3.5 7.0 0.00 0.12 0.00 61 1011.8
20260507093045 62 95 3.5 7.0 0.00 0.12 0.00 60 1011.8
20260507092945 62 96 3.5 7.0 0.00 0.12 0.00 60 1011.8
20260507092845 62 99 3.5 7.0 0.00 0.12 0.00 60 1011.7
20260507092745 62 100 3.5 7.0 0.00 0.12 0.00 60 1011.8
20260507092645 62 98 3.5 7.0 0.00 0.12 0.00 59 1011.7
20260507092545 62 102 3.5 7.0 0.00 0.12 0.00 59 1011.7
20260507092445 62 102 3.5 7.0 0.00 0.12 0.00 59 1011.7
20260507092344 62 103 3.5 7.0 0.00 0.12 0.00 60 1011.8
20260507092244 62 101 3.5 7.8 0.00 0.12 0.00 60 1011.8
20260507092146 62 99 3.5 7.8 0.00 0.12 0.00 60 1011.8
20260507092045 62 94 2.6 7.8 0.00 0.12 0.00 59 1011.8
20260507091945 62 89 2.6 7.8 0.00 0.12 0.00 62 1011.8
20260507091845 62 87 2.6 7.8 0.00 0.12 0.00 61 1011.8
20260507091745 62 91 2.6 7.8 0.00 0.12 0.00 61 1011.7
20260507091645 62 91 2.6 7.8 0.00 0.12 0.00 60 1011.8
20260507091545 62 90 2.6 7.8 0.00 0.12 0.00 62 1011.7
20260507091445 62 92 2.6 7.8 0.00 0.12 0.00 62 1011.7
20260507091345 62 96 1.7 7.8 0.00 0.12 0.00 61 1011.7
20260507091245 62 100 1.7 5.2 0.00 0.12 0.00 62 1011.7
20260507091144 62 105 1.7 5.2 0.00 0.12 0.00 62 1011.7
20260507091044 62 113 1.7 5.2 0.00 0.12 0.00 62 1011.7
20260507090944 62 113 1.7 5.2 0.00 0.12 0.00 62 1011.8
20260507090846 62 110 1.7 5.2 0.00 0.12 0.00 61 1011.7
20260507090746 62 104 0.9 3.5 0.00 0.12 0.00 61 1011.7
20260507090645 62 111 0.9 3.5 0.00 0.12 0.00 61 1011.8
20260507090544 62 104 1.7 6.1 0.00 0.12 0.00 63 1011.8
20260507090444 62 97 1.7 6.1 0.00 0.12 0.00 64 1011.7
20260507090344 62 90 1.7 6.1 0.00 0.12 0.00 65 1011.8
20260507090245 62 90 1.7 6.1 0.00 0.12 0.00 66 1011.7
20260507090145 61 90 1.7 6.1 0.00 0.12 0.00 66 1011.8
20260507090045 61 87 1.7 6.1 0.00 0.12 0.00 65 1011.8
20260507085944 61 88 1.7 6.1 0.00 0.12 0.00 66 1011.8
20260507085846 61 88 0.9 6.1 0.00 0.12 0.00 65 1011.8
20260507085746 61 87 0.9 6.1 0.00 0.12 0.00 65 1011.8
20260507085645 62 77 0.9 6.1 0.00 0.12 0.00 66 1011.9
20260507085545 61 68 0.9 6.1 0.00 0.12 0.00 67 1011.8
20260507085445 61 40 0.9 2.6 0.00 0.12 0.00 68 1011.8
20260507085345 61 35 0.0 1.7 0.00 0.12 0.00 68 1011.8
20260507085245 60 31 0.0 1.7 0.00 0.12 0.00 67 1011.8
20260507085145 61 28 0.0 1.7 0.00 0.12 0.00 66 1011.8
20260507085044 61 13 0.0 1.7 0.00 0.12 0.00 66 1011.8
20260507084944 61 350 0.0 2.6 0.00 0.12 0.00 66 1011.8
20260507084845 61 335 0.0 2.6 0.00 0.12 0.00 67 1011.8
20260507084745 61 331 0.9 2.6 0.00 0.12 0.00 67 1011.9
20260507084645 61 322 0.9 2.6 0.00 0.12 0.00 68 1011.9
20260507084545 60 326 0.9 2.6 0.00 0.12 0.00 68 1011.8
20260507084445 60 327 0.9 2.6 0.00 0.12 0.00 69 1011.8
20260507084345 60 328 0.9 2.6 0.00 0.12 0.00 70 1011.9
20260507084245 60 328 0.9 2.6 0.00 0.12 0.00 69 1011.9
20260507084146 59 332 0.9 2.6 0.00 0.12 0.00 69 1012.0
20260507084046 59 339 0.9 2.6 0.00 0.12 0.00 69 1011.8
20260507083945 59 345 0.9 2.6 0.00 0.12 0.00 69 1011.9
20260507083845 60 350 0.9 2.6 0.00 0.12 0.00 68 1011.8
20260507083745 60 353 0.9 3.5 0.00 0.12 0.00 69 1011.8
20260507083644 60 3 0.9 3.5 0.00 0.12 0.00 69 1011.8
20260507083544 60 6 1.7 3.5 0.00 0.12 0.00 69 1011.8
20260507083444 60 4 1.7 3.5 0.00 0.12 0.00 68 1011.8
20260507083346 60 3 1.7 3.5 0.00 0.12 0.00 68 1011.9
20260507083245 60 4 1.7 3.5 0.00 0.12 0.00 68 1011.8
20260507083145 59 2 1.7 3.5 0.00 0.12 0.00 68 1011.9
20260507083044 59 358 1.7 3.5 0.00 0.12 0.00 68 1011.8
20260507082944 59 359 1.7 3.5 0.00 0.12 0.00 69 1011.9
20260507082846 59 5 1.7 3.5 0.00 0.12 0.00 69 1011.9
20260507082746 59 9 1.7 3.5 0.00 0.12 0.00 68 1011.9
20260507082645 59 11 1.7 3.5 0.00 0.12 0.00 68 1011.9
20260507082545 59 13 1.7 3.5 0.00 0.12 0.00 69 1011.9
20260507082445 59 13 1.7 3.5 0.00 0.12 0.00 69 1011.9
20260507082344 59 13 1.7 3.5 0.00 0.12 0.00 69 1011.9
20260507082246 58 12 1.7 3.5 0.00 0.12 0.00 69 1011.9
20260507082145 58 13 1.7 5.2 0.00 0.12 0.00 69 1011.9
20260507082045 58 9 1.7 5.2 0.00 0.12 0.00 69 1011.9
20260507081945 58 3 1.7 5.2 0.00 0.12 0.00 69 1011.9
20260507081845 58 357 2.6 6.1 0.00 0.12 0.00 69 1011.9
20260507081744 58 353 2.6 6.1 0.00 0.12 0.00 68 1011.9
20260507081646 59 349 2.6 6.1 0.00 0.12 0.00 69 1011.9
20260507081546 58 347 2.6 6.1 0.00 0.12 0.00 69 1012.0
20260507081444 58 346 2.6 6.1 0.00 0.12 0.00 68 1012.0
20260507081346 58 346 2.6 6.1 0.00 0.12 0.00 68 1012.0
20260507081246 58 347 2.6 6.1 0.00 0.12 0.00 68 1012.0
20260507081145 58 347 2.6 6.1 0.00 0.12 0.00 68 1011.9
20260507081045 58 346 2.6 6.1 0.00 0.12 0.00 67 1011.9
20260507080945 58 346 2.6 7.0 0.00 0.12 0.00 69 1011.9
20260507080845 58 348 2.6 7.0 0.00 0.12 0.00 70 1011.9
20260507080745 58 348 2.6 7.0 0.00 0.12 0.00 70 1011.9
20260507080646 58 349 2.6 7.0 0.00 0.12 0.00 70 1011.9
20260507080545 58 349 2.6 7.0 0.00 0.12 0.00 70 1011.9
20260507080445 58 349 2.6 7.0 0.00 0.12 0.00 69 1012.0
20260507080345 58 349 2.6 7.0 0.00 0.12 0.00 70 1011.9
20260507080245 58 348 3.5 7.0 0.00 0.12 0.00 69 1012.0
20260507080144 58 346 2.6 7.0 0.00 0.12 0.00 70 1012.0
20260507080044 57 349 3.5 7.0 0.00 0.12 0.00 70 1012.0
20260507075944 57 352 3.5 7.0 0.00 0.12 0.00 69 1012.0
20260507075846 57 351 3.5 7.0 0.00 0.12 0.00 71 1011.9
20260507075746 57 352 3.5 7.0 0.00 0.12 0.00 70 1012.0
20260507075645 57 354 3.5 7.0 0.00 0.12 0.00 71 1012.1
20260507075545 57 356 3.5 7.0 0.00 0.12 0.00 71 1012.0
20260507075445 56 1 3.5 7.0 0.00 0.12 0.00 71 1012.1
20260507075345 56 2 3.5 7.0 0.00 0.12 0.00 72 1012.1
20260507075245 56 4 3.5 7.0 0.00 0.12 0.00 72 1012.1
20260507075145 56 5 3.5 7.0 0.00 0.12 0.00 73 1012.1
20260507075044 56 5 3.5 7.0 0.00 0.12 0.00 73 1012.1
20260507074944 56 6 3.5 6.1 0.00 0.12 0.00 73 1012.0
20260507074844 56 8 3.5 6.1 0.00 0.12 0.00 73 1012.0
20260507074746 56 10 3.5 6.1 0.00 0.12 0.00 74 1012.0
20260507074645 56 9 3.5 6.1 0.00 0.12 0.00 73 1012.1
20260507074545 56 10 3.5 6.1 0.00 0.12 0.00 73 1012.1
20260507074445 56 8 2.6 6.1 0.00 0.12 0.00 73 1012.1
20260507074345 56 8 2.6 6.1 0.00 0.12 0.00 73 1012.1
20260507074245 56 11 2.6 6.1 0.00 0.12 0.00 74 1012.0
20260507074145 56 16 2.6 5.2 0.00 0.12 0.00 74 1012.1
20260507074045 56 18 2.6 5.2 0.00 0.12 0.00 74 1012.1
20260507073945 56 18 2.6 5.2 0.00 0.12 0.00 75 1012.1
20260507073845 56 18 2.6 5.2 0.00 0.12 0.00 75 1012.0
20260507073745 56 20 2.6 5.2 0.00 0.12 0.00 75 1012.1
20260507073644 56 27 1.7 5.2 0.00 0.12 0.00 75 1012.1
20260507073544 56 24 1.7 3.5 0.00 0.12 0.00 76 1012.2
20260507073444 56 25 1.7 3.5 0.00 0.12 0.00 77 1012.2
20260507073344 55 24 1.7 3.5 0.00 0.12 0.00 76 1012.2
20260507073245 55 21 1.7 3.5 0.00 0.12 0.00 77 1012.2
20260507073145 55 16 1.7 5.2 0.00 0.12 0.00 78 1012.3
20260507073045 55 10 1.7 5.2 0.00 0.12 0.00 78 1012.3
20260507072944 55 11 1.7 5.2 0.00 1.44 0.00 77 1012.3
20260507072844 55 9 1.7 5.2 0.00 1.44 0.00 78 1012.3
20260507072745 55 3 2.6 5.2 0.00 1.44 0.00 77 1012.3
20260507072645 55 356 1.7 5.2 0.00 1.44 0.00 79 1012.3
20260507072545 55 355 1.7 5.2 0.00 1.44 0.00 79 1012.3
20260507072445 55 353 1.7 5.2 0.00 1.48 0.00 79 1012.3
20260507072345 54 353 1.7 5.2 0.00 1.48 0.00 79 1012.2
20260507072245 54 350 1.7 5.2 0.00 1.48 0.00 78 1012.3
20260507072145 55 350 1.7 6.1 0.00 1.48 0.00 78 1012.3
20260507072045 55 348 1.7 6.1 0.00 1.48 0.00 79 1012.1
20260507071945 55 343 1.7 6.1 0.00 1.48 0.00 79 1012.2
20260507071845 55 341 1.7 6.1 0.00 1.48 0.00 79 1012.2
20260507071745 55 341 1.7 6.1 0.00 1.48 0.00 80 1012.3
20260507071646 54 344 1.7 6.1 0.00 1.48 0.00 80 1012.3
20260507071545 54 345 2.6 6.1 0.00 1.48 0.00 80 1012.3
20260507071445 54 348 2.6 6.1 0.00 1.48 0.00 80 1012.4
20260507071345 54 349 2.6 6.1 0.00 1.48 0.00 80 1012.4
20260507071245 54 350 2.6 6.1 0.00 1.48 0.00 79 1012.4
20260507071144 54 349 3.5 7.0 0.00 1.48 0.00 80 1012.3
20260507071044 54 352 3.5 7.0 0.00 1.48 0.00 81 1012.3
20260507070944 54 356 3.5 7.0 0.00 1.48 0.00 81 1012.3
20260507070846 54 358 3.5 7.0 0.00 1.48 0.00 81 1012.4
20260507070746 53 359 3.5 7.0 0.00 1.48 0.00 81 1012.3
20260507070644 53 1 3.5 7.0 0.00 1.48 0.00 81 1012.3
20260507070544 53 1 3.5 7.0 0.00 1.48 0.00 82 1012.2
20260507070444 53 359 3.5 7.0 0.00 1.51 0.00 81 1012.3
20260507070346 53 359 2.6 7.0 0.00 1.51 0.00 82 1012.3
20260507070244 53 359 2.6 7.0 0.00 1.51 0.00 82 1012.3
20260507070146 53 2 2.6 6.1 0.00 1.51 0.00 82 1012.3
20260507070046 53 359 2.6 6.1 0.00 1.51 0.00 82 1012.3
20260507065945 53 358 2.6 6.1 0.00 1.51 0.00 82 1012.2
20260507065845 53 1 2.6 7.0 0.00 1.51 0.00 82 1012.2
20260507065745 53 359 2.6 7.8 0.00 1.51 0.00 82 1012.2
20260507065644 53 359 2.6 7.8 0.00 1.51 0.00 82 1012.2
20260507065544 53 357 2.6 7.8 0.00 1.51 0.00 82 1012.1
20260507065444 53 358 2.6 7.8 0.00 1.51 0.00 82 1012.1
20260507065344 53 356 2.6 7.8 0.00 1.51 0.00 82 1012.2
20260507065244 53 354 2.6 7.8 0.00 1.51 0.00 82 1012.2
20260507065146 53 354 3.5 7.8 0.00 1.51 0.00 82 1012.1
20260507065045 53 353 3.5 7.8 0.00 1.51 0.00 82 1012.1
20260507064945 53 350 3.5 7.8 0.00 1.51 0.00 82 1012.1
20260507064845 53 349 3.5 7.8 0.00 1.51 0.00 82 1012.1
20260507064744 53 349 3.5 7.8 0.00 1.51 0.00 83 1012.2
20260507064644 53 349 3.5 7.8 0.00 1.51 0.00 83 1012.2
20260507064544 53 353 3.5 7.8 0.00 1.51 0.00 83 1012.1
20260507064445 53 355 4.3 7.8 0.00 1.51 0.00 83 1012.1
20260507064345 53 356 4.3 7.8 0.00 1.51 0.00 83 1012.1
20260507064244 53 357 3.5 7.8 0.00 1.51 0.00 83 1012.2
20260507064145 53 358 3.5 7.8 0.00 1.51 0.00 83 1012.2
20260507064045 52 1 3.5 7.8 0.00 1.51 0.00 83 1012.2
20260507063945 52 3 3.5 7.8 0.00 1.51 0.00 83 1012.2
20260507063845 52 4 2.6 7.8 0.00 1.51 0.00 83 1012.2
20260507063745 52 5 2.6 7.8 0.00 1.51 0.00 83 1012.3
20260507063645 52 9 2.6 7.0 0.00 1.51 0.00 82 1012.2
20260507063544 52 8 2.6 7.0 0.00 1.51 0.00 84 1012.2
20260507063444 52 8 1.7 3.5 0.00 1.51 0.00 84 1012.2
20260507063344 52 9 1.7 3.5 0.00 1.51 0.00 84 1012.2
20260507063245 52 10 1.7 3.5 0.00 1.51 0.00 84 1012.1
20260507063145 52 7 2.6 3.5 0.00 1.51 0.00 84 1012.1
20260507063045 52 6 2.6 3.5 0.00 1.51 0.00 84 1012.1
20260507062944 52 7 1.7 3.5 0.00 1.16 0.00 85 1012.1
20260507062844 52 1 1.7 5.2 0.00 1.16 0.00 85 1012.1
20260507062744 52 3 1.7 5.2 0.00 1.16 0.00 85 1012.1
20260507062645 52 4 2.6 5.2 0.00 1.16 0.00 85 1012.1
20260507062545 52 8 2.6 5.2 0.00 1.16 0.00 85 1012.1
20260507062445 52 8 2.6 5.2 0.00 1.20 0.00 85 1012.1
20260507062345 52 6 2.6 5.2 0.00 1.20 0.00 86 1012.1
20260507062246 52 5 2.6 5.2 0.00 1.20 0.00 86 1012.1
20260507062145 52 8 2.6 5.2 0.00 1.20 0.00 87 1012.0
20260507062045 51 10 2.6 5.2 0.00 1.20 0.00 87 1012.1
20260507061945 51 10 2.6 5.2 0.00 1.20 0.00 87 1012.0
20260507061845 51 11 2.6 5.2 0.00 1.20 0.00 86 1012.1
20260507061745 51 8 2.6 5.2 0.00 1.20 0.00 86 1012.0
20260507061645 51 5 2.6 5.2 0.00 1.20 0.00 86 1012.0
20260507061545 51 1 2.6 5.2 0.00 1.20 0.00 87 1012.0
20260507061444 51 358 2.6 5.2 0.00 1.24 0.00 86 1012.0
20260507061344 51 355 1.7 5.2 0.00 1.24 0.00 86 1012.1
20260507061244 51 353 2.6 5.2 0.00 1.24 0.00 86 1012.1
20260507061145 51 352 2.6 5.2 0.00 1.24 0.00 87 1012.0
20260507061045 51 348 2.6 5.2 0.00 1.24 0.00 87 1011.9
20260507060945 51 348 2.6 5.2 0.00 1.28 0.00 87 1011.9
20260507060844 51 349 2.6 5.2 0.00 1.28 0.00 87 1012.0
20260507060744 51 350 1.7 5.2 0.00 1.28 0.00 87 1012.0
20260507060646 51 351 2.6 5.2 0.00 1.28 0.00 87 1012.0
20260507060545 51 353 2.6 5.2 0.00 1.28 0.00 87 1012.0
20260507060445 51 355 2.6 5.2 0.00 1.28 0.00 87 1012.0
20260507060345 51 357 1.7 5.2 0.00 1.28 0.00 87 1012.0
20260507060244 51 359 1.7 5.2 0.00 1.28 0.00 87 1012.0
20260507060144 51 359 1.7 3.5 0.00 1.28 0.00 87 1012.0
20260507060044 51 2 0.9 3.5 0.00 1.28 0.00 87 1012.0
20260507055945 51 4 0.9 3.5 0.00 1.32 0.00 88 1012.0
20260507055845 51 5 0.9 3.5 0.00 1.32 0.00 88 1012.0
20260507055745 51 6 0.9 2.6 0.00 1.32 0.00 87 1012.0
20260507055644 51 2 0.9 2.6 0.00 1.32 0.00 87 1012.0
20260507055544 51 2 0.9 2.6 0.00 1.32 0.00 88 1012.0
20260507055444 51 5 0.9 2.6 0.00 1.36 0.00 89 1012.0
20260507055346 51 7 0.9 2.6 0.00 1.36 0.00 89 1012.0
20260507055245 51 8 0.9 2.6 0.00 1.36 0.00 89 1012.0
20260507055145 51 8 0.9 2.6 0.00 1.36 0.00 89 1012.0
20260507055045 50 7 0.9 2.6 0.00 1.36 0.00 89 1012.0
20260507054945 50 5 0.9 2.6 0.00 1.40 0.00 89 1012.0
20260507054845 50 5 0.9 2.6 0.00 1.40 0.00 88 1012.0
20260507054745 50 7 0.9 2.6 0.00 1.40 0.00 89 1012.1
20260507054644 50 13 0.9 2.6 0.00 1.40 0.00 89 1012.1
20260507054544 50 11 0.9 5.2 0.00 1.40 0.00 88 1012.0
20260507054446 50 4 0.9 5.2 0.00 1.40 0.00 88 1011.9
20260507054346 50 1 0.9 5.2 0.00 1.40 0.00 88 1011.9
20260507054245 51 1 0.9 5.2 0.00 1.40 0.00 88 1011.8
20260507054144 51 1 0.9 5.2 0.00 1.40 0.00 89 1011.9
20260507054044 51 359 0.9 5.2 0.00 1.40 0.00 89 1011.9
20260507053944 51 358 0.9 5.2 0.00 1.40 0.00 89 1011.9
20260507053845 51 358 0.9 5.2 0.00 1.40 0.00 89 1011.9
20260507053745 51 357 0.9 5.2 0.00 1.40 0.00 89 1011.9
20260507053645 51 356 0.9 5.2 0.00 1.40 0.00 89 1011.9
20260507053544 51 356 0.9 3.5 0.00 1.40 0.00 89 1012.0
20260507053444 51 355 0.9 2.6 0.00 1.40 0.00 90 1011.9
20260507053344 50 353 0.9 2.6 0.00 1.40 0.00 90 1011.8
20260507053245 50 355 0.9 2.6 0.00 1.40 0.00 90 1011.9
20260507053144 50 353 0.9 2.6 0.00 1.40 0.00 90 1011.9
20260507053044 50 353 0.9 2.6 0.00 1.40 0.00 90 1011.9
20260507052946 50 351 0.9 2.6 0.00 1.40 0.00 90 1011.9
20260507052845 50 348 0.9 2.6 0.00 1.40 0.00 90 1011.9
20260507052745 50 346 0.9 2.6 0.00 1.40 0.00 90 1011.9
20260507052644 50 345 0.9 2.6 0.00 1.40 0.00 90 1011.9
20260507052544 50 343 0.9 2.6 0.00 1.40 0.00 90 1012.0
20260507052444 50 341 0.9 2.6 0.00 1.40 0.00 90 1012.0
20260507052345 50 341 0.9 2.6 0.00 1.40 0.00 90 1012.0
20260507052246 50 329 0.9 2.6 0.00 1.40 0.00 90 1012.0
20260507052145 50 321 0.0 1.7 0.00 1.40 0.00 90 1012.0
20260507052045 50 322 0.9 1.7 0.00 1.40 0.00 90 1012.1
20260507051945 50 323 0.9 1.7 0.00 1.44 0.00 90 1012.0
20260507051846 50 324 0.9 1.7 0.00 1.44 0.00 90 1012.0
20260507051745 50 325 0.9 1.7 0.00 1.44 0.00 90 1012.0
20260507051645 50 325 0.9 1.7 0.00 1.44 0.00 91 1012.0
20260507051545 50 327 0.9 1.7 0.00 1.44 0.00 91 1011.9
20260507051444 50 330 0.9 1.7 0.00 1.44 0.00 90 1011.9
20260507051344 50 333 0.9 1.7 0.00 1.44 0.00 91 1012.0
20260507051246 50 339 0.9 1.7 0.00 1.44 0.00 90 1011.8
20260507051145 50 350 0.0 1.7 0.00 1.44 0.00 91 1011.8
20260507051045 50 2 0.0 1.7 0.00 1.44 0.00 90 1011.8
20260507050945 50 15 0.0 0.9 0.00 1.48 0.00 91 1011.8
20260507050845 50 29 0.0 1.7 0.00 1.48 0.00 91 1011.8
20260507050744 50 30 0.0 1.7 0.00 1.48 0.00 91 1011.8
20260507050646 50 29 0.0 1.7 0.00 1.48 0.00 91 1011.9
20260507050545 50 28 0.0 1.7 0.00 1.48 0.00 91 1011.8
20260507050445 50 25 0.0 1.7 0.00 1.48 0.00 91 1011.8
20260507050345 50 25 0.0 1.7 0.00 1.48 0.00 91 1011.8
20260507050245 50 26 0.0 1.7 0.00 1.48 0.00 91 1011.8
20260507050144 50 23 0.0 1.7 0.00 1.48 0.00 91 1011.7
20260507050044 50 11 0.0 1.7 0.00 1.48 0.00 91 1011.8
20260507045946 50 8 0.0 1.7 0.00 1.48 0.00 91 1011.8
20260507045845 50 328 0.0 0.9 0.00 1.48 0.00 91 1011.8
20260507045745 50 312 0.0 0.0 0.00 1.48 0.00 91 1011.8
20260507045644 50 329 0.0 0.9 0.00 1.48 0.00 92 1011.7
20260507045544 50 336 0.0 0.9 0.00 1.48 0.00 92 1011.7
20260507045444 50 342 0.0 0.9 0.00 1.48 0.00 92 1011.7
20260507045345 50 343 0.0 0.9 0.00 1.48 0.00 92 1011.8
20260507045244 50 345 0.0 0.9 0.00 1.48 0.00 92 1011.8
20260507045144 50 347 0.0 0.9 0.00 1.48 0.00 92 1011.6
20260507045045 49 352 0.0 0.9 0.00 1.48 0.00 92 1011.7
20260507044946 49 353 0.0 0.9 0.00 1.48 0.00 92 1011.7
20260507044845 49 357 0.0 0.9 0.00 1.48 0.00 92 1011.6
20260507044745 49 357 0.0 0.9 0.00 1.48 0.00 92 1011.7
20260507044646 49 357 0.0 0.9 0.00 1.48 0.00 92 1011.6
20260507044546 49 6 0.0 1.7 0.00 1.48 0.00 92 1011.6
20260507044445 49 10 0.0 1.7 0.00 1.51 0.00 92 1011.7
20260507044345 49 10 0.0 1.7 0.00 1.51 0.00 92 1011.6
20260507044244 49 9 0.9 1.7 0.00 1.51 0.00 92 1011.5
20260507044145 49 9 0.9 1.7 0.00 1.51 0.00 92 1011.5
20260507044045 49 15 0.9 1.7 0.00 1.51 0.00 92 1011.4
20260507043945 49 15 0.9 1.7 0.00 1.51 0.00 92 1011.4
20260507043845 49 16 0.9 1.7 0.00 1.51 0.00 92 1011.5
20260507043745 49 17 0.9 1.7 0.00 1.51 0.00 92 1011.4
20260507043644 49 19 0.9 1.7 0.00 1.51 0.00 92 1011.5
20260507043544 49 17 0.9 1.7 0.00 1.51 0.00 92 1011.4
20260507043446 49 15 0.9 1.7 0.00 1.51 0.00 92 1011.3
20260507043346 49 16 0.9 1.7 0.00 1.51 0.00 92 1011.3
20260507043245 49 18 0.9 1.7 0.00 1.51 0.00 92 1011.2
20260507043144 49 18 0.0 1.7 0.00 1.51 0.00 92 1011.2
20260507043044 49 11 0.0 1.7 0.00 1.51 0.00 92 1011.2
20260507042944 49 11 0.0 1.7 0.00 1.51 0.00 92 1011.1
20260507042845 49 9 0.0 0.9 0.00 1.51 0.00 92 1011.1
20260507042745 49 6 0.0 0.9 0.00 1.51 0.00 92 1011.2
20260507042644 49 1 0.0 0.9 0.00 1.51 0.00 92 1011.2
20260507042544 49 355 0.0 0.9 0.00 1.51 0.00 92 1011.0
20260507042444 49 353 0.0 0.0 0.00 1.51 0.00 92 1011.1
20260507042346 49 353 0.0 0.0 0.00 1.51 0.00 92 1011.1
20260507042245 49 353 0.0 0.0 0.00 1.51 0.00 92 1011.1
20260507042145 49 353 0.0 0.0 0.00 1.51 0.00 92 1011.1
20260507042045 49 352 0.0 0.0 0.00 1.51 0.00 92 1011.1
20260507041945 49 350 0.0 0.9 0.00 1.51 0.00 92 1011.0
20260507041844 49 351 0.0 0.9 0.00 1.51 0.00 92 1011.0
20260507041746 49 7 0.0 0.9 0.00 1.51 0.00 92 1010.9
20260507041645 49 21 0.0 0.9 0.00 1.51 0.00 92 1011.0
20260507041545 49 22 0.0 0.9 0.00 1.51 0.00 92 1011.0
20260507041445 49 21 0.0 0.9 0.00 1.51 0.00 92 1011.0
20260507041344 49 22 0.0 0.9 0.00 1.51 0.00 92 1011.0
20260507041244 49 24 0.0 0.9 0.00 1.51 0.00 92 1011.0
20260507041145 49 25 0.0 0.9 0.00 1.51 0.00 92 1010.9
20260507041045 49 27 0.0 0.9 0.00 1.51 0.00 92 1010.9
20260507040945 49 36 0.0 0.9 0.00 1.51 0.00 92 1010.9
20260507040846 49 41 0.0 0.9 0.00 1.51 0.00 92 1010.9
20260507040746 49 15 0.0 0.9 0.00 1.51 0.00 92 1010.9
20260507040645 49 357 0.0 0.9 0.00 1.51 0.00 92 1010.9
20260507040545 49 350 0.0 0.9 0.00 1.51 0.00 92 1010.9
20260507040445 49 350 0.0 0.9 0.00 1.51 0.00 92 1010.9
20260507040345 49 350 0.0 0.9 0.00 1.51 0.00 92 1010.8
20260507040244 49 346 0.0 0.9 0.00 1.51 0.00 92 1010.9
20260507040146 49 335 0.0 1.7 0.00 1.51 0.00 92 1010.9
20260507040046 49 328 0.0 1.7 0.00 1.51 0.00 92 1010.9
20260507035945 49 324 0.9 1.7 0.00 1.51 0.00 92 1010.8
20260507035845 49 320 0.9 1.7 0.00 1.51 0.00 92 1010.9
20260507035745 49 316 0.9 1.7 0.00 1.51 0.00 92 1010.9
20260507035644 49 314 0.9 1.7 0.00 1.51 0.00 92 1011.0
20260507035544 49 314 0.9 1.7 0.00 1.51 0.00 92 1010.9
20260507035444 49 314 0.9 1.7 0.00 1.51 0.00 92 1010.9
20260507035346 49 313 0.9 1.7 0.00 1.51 0.00 92 1011.0
20260507035245 49 310 0.9 1.7 0.00 1.51 0.00 92 1010.9
20260507035145 49 309 0.9 1.7 0.00 1.51 0.00 92 1010.8
20260507035046 49 310 0.0 1.7 0.00 1.51 0.00 92 1010.9
20260507034946 49 310 0.0 1.7 0.00 1.51 0.00 92 1010.9
20260507034845 49 310 0.0 1.7 0.00 1.51 0.00 92 1010.9
20260507034745 49 309 0.0 1.7 0.00 1.51 0.00 92 1010.8
20260507034646 49 308 0.0 1.7 0.00 1.51 0.00 92 1010.7
20260507034546 49 306 0.0 1.7 0.00 1.51 0.00 92 1010.9
20260507034445 49 304 0.9 1.7 0.00 1.51 0.00 92 1010.9
20260507034345 49 307 0.9 1.7 0.00 1.51 0.00 92 1010.9
20260507034245 49 309 0.9 2.6 0.00 1.51 0.00 92 1010.9
20260507034145 49 308 0.9 2.6 0.00 1.51 0.00 92 1010.9
20260507034045 49 305 0.9 2.6 0.00 1.51 0.00 92 1010.9
20260507033945 49 301 1.7 2.6 0.00 1.51 0.00 92 1010.9
20260507033844 49 298 1.7 2.6 0.00 1.51 0.00 92 1010.9
20260507033744 49 294 1.7 2.6 0.00 1.51 0.00 92 1010.9
20260507033645 49 291 1.7 2.6 0.00 1.51 0.00 92 1010.9
20260507033545 49 289 1.7 2.6 0.00 1.51 0.00 92 1010.9
20260507033445 49 288 1.7 2.6 0.00 1.51 0.00 92 1010.9
20260507033344 49 286 1.7 2.6 0.00 1.51 0.00 92 1010.9
20260507033246 49 281 0.9 2.6 0.00 1.51 0.00 92 1010.9
20260507033145 49 281 0.9 2.6 0.00 1.51 0.00 92 1011.0
20260507033045 49 283 0.9 2.6 0.00 1.51 0.00 92 1010.9
20260507032945 49 286 0.9 2.6 0.00 1.51 0.00 92 1010.8
20260507032846 49 291 0.9 2.6 0.00 1.51 0.00 92 1010.9
20260507032746 49 293 0.9 2.6 0.00 1.51 0.00 92 1010.8
20260507032645 49 300 0.9 2.6 0.00 1.51 0.00 92 1010.8
20260507032545 49 311 0.0 1.7 0.00 1.51 0.00 92 1010.8
20260507032445 49 320 0.0 1.7 0.00 1.51 0.00 92 1010.8
20260507032344 49 326 0.0 0.9 0.00 1.51 0.00 92 1010.8
20260507032246 49 326 0.0 0.9 0.00 1.51 0.00 92 1010.9
20260507032145 49 326 0.0 0.9 0.00 1.51 0.00 92 1010.9
20260507032045 49 326 0.0 1.7 0.00 1.51 0.00 92 1010.8
20260507031945 49 326 0.0 1.7 0.00 1.51 0.00 92 1010.8
20260507031844 49 326 0.0 1.7 0.00 1.51 0.00 92 1010.8
20260507031746 49 326 0.0 1.7 0.00 1.51 0.00 92 1010.8
20260507031645 50 328 0.0 1.7 0.00 1.51 0.00 92 1010.7
20260507031545 50 330 0.9 1.7 0.00 1.51 0.00 92 1010.8
20260507031445 50 332 0.9 1.7 0.00 1.51 0.00 92 1010.8
20260507031344 50 332 0.9 1.7 0.00 1.51 0.00 92 1010.8
20260507031244 50 334 0.9 1.7 0.00 1.51 0.00 92 1010.8
20260507031145 50 337 0.9 1.7 0.00 1.51 0.00 92 1010.8
20260507031046 50 343 0.9 1.7 0.00 1.51 0.00 92 1010.8
20260507030945 50 348 0.9 1.7 0.00 1.51 0.00 92 1010.8
20260507030845 50 352 0.9 1.7 0.00 1.51 0.00 92 1010.7
20260507030745 50 353 0.9 1.7 0.00 1.51 0.00 92 1010.7
20260507030645 50 355 0.9 1.7 0.00 1.51 0.00 92 1010.7
20260507030544 50 355 0.0 1.7 0.00 1.51 0.00 92 1010.8
20260507030444 50 354 0.0 1.7 0.00 1.51 0.00 92 1010.8
20260507030344 50 353 0.9 1.7 0.00 1.51 0.00 92 1010.7
20260507030246 50 352 0.9 1.7 0.00 1.51 0.00 92 1010.7
20260507030145 50 348 0.9 1.7 0.00 1.51 0.00 92 1010.8
20260507030045 50 345 0.9 1.7 0.00 1.51 0.00 92 1010.7
20260507025945 50 341 0.9 1.7 0.00 1.51 0.00 92 1010.8
20260507025844 50 339 0.9 1.7 0.00 1.51 0.00 92 1010.8
20260507025744 50 338 0.9 1.7 0.00 1.51 0.00 92 1010.8
20260507025646 50 337 0.9 1.7 0.00 1.51 0.00 92 1010.8
20260507025546 50 334 0.9 1.7 0.00 1.51 0.00 92 1010.8
20260507025446 50 337 1.7 2.6 0.00 1.51 0.00 92 1010.8
20260507025345 50 339 1.7 3.5 0.00 1.51 0.00 92 1010.8
20260507025244 50 342 1.7 5.2 0.00 1.51 0.00 92 1010.8
20260507025144 50 342 1.7 5.2 0.00 1.51 0.00 92 1010.7
20260507025046 50 342 1.7 5.2 0.00 1.51 0.00 92 1010.7
20260507024946 50 343 2.6 5.2 0.00 1.51 0.00 92 1010.8
20260507024846 50 343 2.6 5.2 0.00 1.51 0.00 92 1010.8
20260507024745 50 342 2.6 5.2 0.00 1.51 0.00 92 1010.7
20260507024644 50 342 2.6 5.2 0.00 1.51 0.00 92 1010.7
20260507024544 50 342 2.6 5.2 0.00 1.51 0.00 92 1010.7
20260507024446 50 340 2.6 5.2 0.00 1.51 0.00 92 1010.7
20260507024345 50 338 2.6 5.2 0.00 1.51 0.00 92 1010.7
20260507024245 50 335 2.6 5.2 0.00 1.51 0.00 92 1010.7
20260507024145 50 333 2.6 5.2 0.00 1.51 0.00 92 1010.7
20260507024045 50 331 2.6 5.2 0.00 1.51 0.00 92 1010.7
20260507023945 50 329 1.7 5.2 0.00 1.51 0.00 92 1010.8
20260507023844 50 326 1.7 3.5 0.00 1.51 0.00 92 1010.8
20260507023744 50 323 1.7 3.5 0.00 1.51 0.00 92 1010.8
20260507023644 50 321 1.7 2.6 0.00 1.51 0.00 92 1010.7
20260507023546 50 317 0.9 2.6 0.00 1.51 0.00 92 1010.8
20260507023446 50 314 0.9 1.7 0.00 1.51 0.00 92 1010.8
20260507023345 50 314 0.9 1.7 0.00 1.51 0.00 92 1010.8
20260507023245 50 313 0.9 1.7 0.00 1.51 0.00 92 1010.8
20260507023144 50 315 0.9 1.7 0.00 1.51 0.00 92 1010.8
20260507023044 50 316 0.9 1.7 0.00 1.51 0.00 92 1010.7
20260507022944 50 318 0.9 1.7 0.00 1.51 0.00 92 1010.7
20260507022845 50 318 0.9 2.6 0.00 1.51 0.00 92 1010.7
20260507022745 50 320 0.9 3.5 0.00 1.51 0.00 92 1010.7
20260507022644 50 321 0.9 3.5 0.00 1.51 0.00 92 1010.7
20260507022544 50 321 0.9 3.5 0.00 1.51 0.00 92 1010.7
20260507022446 50 322 1.7 3.5 0.00 1.51 0.00 92 1010.6
20260507022345 50 322 1.7 3.5 0.00 1.51 0.00 92 1010.7
20260507022244 50 322 1.7 3.5 0.00 1.51 0.00 92 1010.8
20260507022144 50 323 2.6 3.5 0.00 1.51 0.00 92 1010.7
20260507022046 50 324 2.6 3.5 0.00 1.51 0.00 92 1010.7
20260507021946 50 325 2.6 3.5 0.00 1.51 0.00 92 1010.7
20260507021845 50 327 2.6 3.5 0.00 1.51 0.00 92 1010.6
20260507021745 50 329 2.6 3.5 0.00 1.51 0.00 92 1010.7
20260507021644 51 332 2.6 3.5 0.00 1.51 0.00 92 1010.7
20260507021544 50 333 1.7 3.5 0.00 1.51 0.00 92 1010.6
20260507021444 50 335 1.7 3.5 0.00 1.51 0.00 92 1010.6
20260507021344 51 337 1.7 2.6 0.00 1.51 0.00 92 1010.7
20260507021245 51 339 1.7 2.6 0.00 1.51 0.00 92 1010.6
20260507021145 51 341 1.7 2.6 0.00 1.51 0.00 92 1010.7
20260507021045 51 343 1.7 2.6 0.00 1.51 0.00 92 1010.7
20260507020945 51 342 1.7 2.6 0.00 1.51 0.00 92 1010.7
20260507020844 51 345 1.7 3.5 0.00 1.51 0.00 92 1010.7
20260507020744 51 345 1.7 3.5 0.00 1.51 0.00 92 1010.6
20260507020646 51 345 1.7 3.5 0.00 1.51 0.00 92 1010.7
20260507020545 51 346 2.6 3.5 0.00 1.51 0.00 92 1010.7
20260507020445 51 347 2.6 3.5 0.00 1.51 0.00 92 1010.7
20260507020345 51 347 2.6 3.5 0.00 1.51 0.00 92 1010.7
20260507020244 51 348 2.6 3.5 0.00 1.51 0.00 92 1010.6
20260507020144 51 348 2.6 3.5 0.00 1.51 0.00 92 1010.6
20260507020044 51 347 2.6 3.5 0.00 1.51 0.00 92 1010.6
20260507015945 51 346 2.6 3.5 0.00 1.51 0.00 92 1010.7
20260507015844 51 345 2.6 3.5 0.00 1.51 0.00 92 1010.7
20260507015744 51 343 2.6 3.5 0.00 1.51 0.00 92 1010.7
20260507015644 51 340 2.6 3.5 0.00 1.51 0.00 92 1010.6
20260507015546 51 337 2.6 3.5 0.00 1.51 0.00 92 1010.8
20260507015444 51 333 1.7 3.5 0.00 1.51 0.00 92 1010.7
20260507015345 51 330 1.7 3.5 0.00 1.51 0.00 92 1010.7
20260507015245 51 327 1.7 3.5 0.00 1.51 0.00 92 1010.7
20260507015144 51 326 1.7 3.5 0.00 1.51 0.00 92 1010.6
20260507015045 51 326 1.7 3.5 0.00 1.51 0.00 92 1010.6
20260507014945 51 327 1.7 3.5 0.00 1.51 0.00 92 1010.7
20260507014844 51 323 0.9 3.5 0.00 1.51 0.00 92 1010.7
20260507014744 51 324 0.9 2.6 0.00 1.51 0.00 92 1010.6
20260507014645 51 323 0.9 2.6 0.00 1.51 0.00 92 1010.6
20260507014545 51 326 0.9 2.6 0.00 1.51 0.00 92 1010.6
20260507014445 51 334 0.9 2.6 0.00 1.51 0.00 92 1010.5
20260507014345 51 343 0.0 1.7 0.00 1.51 0.00 92 1010.7
20260507014245 51 352 0.0 2.6 0.00 1.51 0.00 92 1010.6
20260507014144 51 349 0.9 3.5 0.00 1.51 0.00 92 1010.6
20260507014044 51 348 0.9 5.2 0.00 1.51 0.00 92 1010.6
20260507013944 51 347 0.9 5.2 0.00 1.51 0.00 92 1010.5
20260507013845 51 346 1.7 5.2 0.00 1.51 0.00 92 1010.5
20260507013744 51 347 1.7 5.2 0.00 1.51 0.00 92 1010.5
20260507013644 51 346 1.7 5.2 0.00 1.51 0.00 92 1010.6
20260507013544 51 345 2.6 5.2 0.00 1.51 0.00 92 1010.5
20260507013444 51 345 2.6 5.2 0.00 1.51 0.00 92 1010.5
20260507013345 51 343 2.6 5.2 0.00 1.51 0.00 92 1010.5
20260507013245 51 341 2.6 5.2 0.00 1.51 0.00 92 1010.5
20260507013144 51 339 2.6 5.2 0.00 1.51 0.00 92 1010.5
20260507013044 51 337 2.6 5.2 0.00 1.51 0.00 92 1010.4
20260507012944 51 334 2.6 5.2 0.00 1.51 0.00 92 1010.4
20260507012845 51 332 2.6 3.5 0.00 1.51 0.00 92 1010.5
20260507012745 51 329 1.7 3.5 0.00 1.51 0.00 92 1010.5
20260507012645 51 326 1.7 3.5 0.00 1.51 0.00 92 1010.4
20260507012545 51 324 1.7 3.5 0.00 1.51 0.00 92 1010.4
20260507012445 51 320 1.7 3.5 0.00 1.51 0.00 92 1010.4
20260507012344 51 320 1.7 3.5 0.00 1.51 0.00 92 1010.4
20260507012245 51 319 1.7 3.5 0.00 1.51 0.00 92 1010.4
20260507012145 51 317 0.9 3.5 0.00 1.51 0.00 91 1010.4
20260507012045 51 317 0.9 2.6 0.00 1.51 0.00 91 1010.4
20260507011945 51 319 0.9 2.6 0.00 1.51 0.00 92 1010.4
20260507011844 51 322 0.9 2.6 0.00 1.51 0.00 92 1010.3
20260507011744 51 326 0.9 2.6 0.00 1.51 0.00 92 1010.4
20260507011646 51 327 1.7 2.6 0.00 1.51 0.00 92 1010.4
20260507011545 51 331 1.7 2.6 0.00 1.51 0.00 92 1010.3
20260507011445 51 333 1.7 2.6 0.00 1.51 0.00 92 1010.4
20260507011345 51 334 1.7 2.6 0.00 1.51 0.00 92 1010.4
20260507011244 51 334 1.7 3.5 0.00 1.51 0.00 92 1010.3
20260507011144 51 335 1.7 3.5 0.00 1.51 0.00 91 1010.4
20260507011044 51 334 2.6 3.5 0.00 1.51 0.00 91 1010.4
20260507010946 51 333 2.6 3.5 0.00 1.51 0.00 92 1010.3
20260507010845 51 332 2.6 3.5 0.00 1.51 0.00 91 1010.3
20260507010745 51 330 2.6 3.5 0.00 1.51 0.00 91 1010.5
20260507010645 51 329 2.6 3.5 0.00 1.51 0.00 91 1010.3
20260507010544 51 326 2.6 3.5 0.00 1.51 0.00 92 1010.3
20260507010444 51 324 2.6 3.5 0.00 1.51 0.00 92 1010.4
20260507010345 51 322 2.6 3.5 0.00 1.51 0.00 92 1010.4
20260507010246 51 320 2.6 3.5 0.00 1.51 0.00 92 1010.3
20260507010145 51 317 1.7 3.5 0.00 1.51 0.00 91 1010.3
20260507010045 51 315 1.7 3.5 0.00 1.51 0.00 92 1010.3
20260507005945 52 313 1.7 3.5 0.00 1.51 0.00 92 1010.4
20260507005844 52 311 1.7 3.5 0.00 1.51 0.00 92 1010.3
20260507005744 52 309 1.7 3.5 0.00 1.51 0.00 91 1010.3
20260507005644 52 308 1.7 3.5 0.00 1.51 0.00 91 1010.4
20260507005544 52 308 1.7 3.5 0.00 1.51 0.00 91 1010.3
20260507005444 52 307 1.7 3.5 0.00 1.51 0.00 91 1010.3
20260507005345 52 306 1.7 3.5 0.00 1.51 0.00 91 1010.2
20260507005245 52 305 1.7 2.6 0.00 1.51 0.00 92 1010.2
20260507005144 52 307 1.7 2.6 0.00 1.51 0.00 91 1010.1
20260507005045 52 307 1.7 2.6 0.00 1.51 0.00 91 1010.2
20260507004945 52 307 1.7 2.6 0.00 1.51 0.00 91 1010.2
20260507004845 52 307 1.7 2.6 0.00 1.51 0.00 91 1010.2
20260507004744 52 307 0.9 2.6 0.00 1.51 0.00 91 1010.1
20260507004646 52 308 0.9 2.6 0.00 1.51 0.00 91 1010.1
20260507004546 52 307 0.9 2.6 0.00 1.51 0.00 91 1010.0
20260507004445 52 308 0.9 2.6 0.00 1.51 0.00 91 1010.0
20260507004344 52 310 0.9 2.6 0.00 1.51 0.00 91 1010.1
20260507004244 52 313 0.9 2.6 0.00 1.51 0.00 91 1010.1
20260507004145 52 311 0.9 2.6 0.00 1.51 0.00 91 1010.1
20260507004045 52 312 0.0 0.9 0.00 1.51 0.00 92 1010.1
20260507003945 52 314 0.0 0.9 0.00 1.51 0.00 91 1010.1
20260507003844 52 316 0.0 0.9 0.00 1.51 0.00 91 1010.0
20260507003744 52 318 0.0 0.9 0.00 1.51 0.00 92 1010.0
20260507003644 52 322 0.9 1.7 0.00 1.51 0.00 92 1010.0
20260507003546 52 327 0.9 1.7 0.00 1.51 0.00 92 1010.1
20260507003446 52 334 0.9 2.6 0.00 1.51 0.00 91 1010.0
20260507003346 52 336 0.9 2.6 0.00 1.51 0.00 91 1010.2
20260507003244 52 339 0.9 2.6 0.00 1.51 0.00 91 1010.1
20260507003146 52 339 0.9 2.6 0.00 1.51 0.00 91 1010.1
20260507003045 52 338 0.9 2.6 0.00 1.51 0.00 91 1010.1
20260507002944 52 340 0.9 2.6 0.00 1.51 0.00 91 1010.1
20260507002844 52 341 1.7 2.6 0.00 1.51 0.00 91 1010.1
20260507002746 52 342 1.7 2.6 0.00 1.51 0.00 91 1010.0
20260507002645 52 344 1.7 2.6 0.00 1.51 0.00 91 1010.2
20260507002545 52 344 0.9 2.6 0.00 1.51 0.00 91 1010.1
20260507002445 52 340 0.9 2.6 0.00 1.51 0.00 91 1010.1
20260507002344 52 338 0.9 2.6 0.00 1.51 0.00 91 1010.1
20260507002244 52 335 0.9 1.7 0.00 1.51 0.00 91 1010.2
20260507002146 52 335 0.9 1.7 0.00 1.51 0.00 91 1010.1
20260507002045 52 334 0.9 1.7 0.00 1.51 0.00 91 1010.2
20260507001945 52 331 1.7 2.6 0.00 1.51 0.00 91 1010.2
20260507001845 52 329 1.7 2.6 0.00 1.51 0.00 91 1010.2
20260507001744 52 326 1.7 2.6 0.00 1.51 0.00 91 1010.2
20260507001644 52 324 1.7 2.6 0.00 1.51 0.00 91 1010.2
20260507001544 52 324 1.7 2.6 0.00 1.51 0.00 91 1010.2
20260507001445 52 325 1.7 2.6 0.00 1.51 0.00 91 1010.3
20260507001344 52 326 1.7 2.6 0.00 1.51 0.00 91 1010.1
20260507001244 53 327 0.9 2.6 0.00 1.51 0.00 91 1010.1
20260507001146 53 327 0.9 2.6 0.00 1.51 0.00 91 1010.1
20260507001045 53 327 0.9 2.6 0.00 1.51 0.00 91 1010.1
20260507000945 53 329 0.9 2.6 0.00 1.51 0.00 91 1010.1
20260507000844 53 331 0.9 1.7 0.00 1.51 0.00 91 1010.1
20260507000744 53 334 0.9 1.7 0.00 1.51 0.00 91 1010.2
20260507000645 53 336 0.0 1.7 0.00 1.51 0.00 91 1010.2
20260507000545 53 338 0.0 0.9 0.00 1.51 0.00 91 1010.1
20260507000445 53 337 0.0 0.9 0.00 1.51 0.00 91 1010.2
20260507000345 53 337 0.0 0.9 0.00 1.51 0.00 91 1010.1
20260507000245 53 337 0.0 0.9 0.00 1.51 0.00 91 1010.1
20260507000144 53 337 0.0 0.9 0.00 1.51 0.00 91 1010.1
20260507000044 53 337 0.0 0.9 0.00 1.51 0.00 91 1010.1
20260506235945 53 337 0.0 0.9 0.00 1.51 0.00 91 1010.1
20260506235845 53 337 0.0 0.9 0.00 1.51 0.00 91 1010.2
20260506235745 53 338 0.0 0.9 0.00 1.51 0.00 91 1010.1
20260506235645 53 338 0.0 0.9 0.00 1.51 0.00 91 1010.1
20260506235545 53 338 0.0 0.9 0.00 1.51 0.00 91 1010.1
20260506235445 53 338 0.0 0.9 0.00 1.51 0.00 91 1010.1